GFSCGP_sfc_rhum_021.txt.gz
RH
28 28 29 28 28 22 23 30 29 29 23 24 34 44 47 58 67 76 73 70 70 70 68 70 73 79 79 87 87 89 88 78 61 74 67 71 78 80 83 64 56 57 58 60
27 31 28 29 32 28 28 29 32 29 24 30 42 46 51 55 67 69 67 67 67 69 67 69 72 78 87 84 80 65 61 60 60 66 82 85 83 75 68 59 58 58 62 61
32 29 25 27 32 35 41 38 37 31 28 32 37 46 47 44 53 57 63 65 62 65 70 75 74 78 73 63 58 56 56 57 63 73 71 66 65 73 74 71 66 66 66 66
30 33 30 32 31 37 43 39 35 33 31 46 35 64 46 54 57 61 65 74 70 71 72 68 66 64 62 62 60 54 54 55 58 61 60 62 64 70 78 76 71 72 71 73
40 38 34 33 36 36 41 40 37 39 43 45 42 55 53 54 65 65 70 68 69 67 61 64 63 61 62 64 64 63 59 58 60 63 67 74 70 80 80 74 70 67 69 73
36 34 33 37 35 34 34 42 49 57 54 66 52 52 61 60 57 59 58 60 59 65 68 66 63 60 64 70 71 71 68 73 69 71 71 73 76 74 71 64 62 65 74 78
38 38 34 35 41 38 40 53 74 77 80 75 51 60 59 46 47 53 58 58 62 71 73 74 63 61 62 70 72 69 67 68 69 70 70 70 71 67 63 64 68 79 83 83
53 54 38 31 40 43 46 50 78 65 77 69 51 69 58 52 50 49 52 57 58 62 60 64 62 66 69 71 70 68 63 64 69 67 67 69 68 70 69 68 75 80 83 78
52 48 38 34 34 40 48 52 48 74 82 82 69 58 49 54 54 51 53 54 60 64 67 67 70 72 72 72 72 70 66 65 65 67 69 72 74 74 74 74 78 85 80 70
46 46 38 32 37 37 36 39 59 72 65 67 61 68 68 56 55 52 58 65 67 66 67 67 68 72 70 66 68 66 66 63 64 68 68 65 71 75 77 78 82 83 79 74
51 42 43 43 43 47 45 51 56 59 75 76 82 69 49 54 54 58 67 66 69 71 69 65 61 63 64 58 55 60 62 62 67 67 69 71 69 69 76 83 81 80 75 72
54 58 71 51 40 41 44 52 52 72 60 88 84 64 47 59 55 58 60 62 70 70 65 62 57 56 56 56 56 56 57 53 60 67 66 64 67 69 72 78 77 80 80 75
51 59 74 58 52 42 48 47 63 66 76 67 79 64 51 57 58 61 67 71 71 70 69 68 67 61 60 58 53 55 54 59 68 63 63 65 75 81 79 80 77 76 77 82
60 63 56 64 55 50 45 45 59 59 82 73 71 55 52 69 68 69 73 73 74 70 66 67 67 63 58 56 56 48 50 57 58 52 63 75 81 80 78 77 77 82 89 86
57 63 64 61 59 51 50 46 52 57 60 64 58 60 52 68 72 72 73 73 70 67 64 64 64 61 60 57 47 45 46 47 53 56 72 76 77 79 82 83 87 92 91 87
72 77 68 76 66 70 59 49 55 53 51 60 55 72 70 69 74 76 73 71 69 64 61 59 60 59 53 44 41 40 41 45 50 64 74 79 83 86 87 91 92 93 88 74
74 79 67 58 79 72 57 62 57 52 51 50 69 62 72 78 75 79 78 71 68 62 59 60 62 58 46 42 40 39 41 46 49 69 71 79 82 83 86 90 93 94 91 90
83 92 88 76 72 53 43 53 50 51 58 70 76 76 71 76 81 78 72 71 68 64 64 60 50 42 44 40 38 42 42 47 54 71 75 80 83 86 87 93 95 90 86 81
74 89 97 77 76 50 45 55 59 59 57 72 74 76 75 82 77 80 68 67 67 65 54 46 38 40 41 38 39 43 47 52 72 75 78 78 83 91 92 94 94 97 96 80
79 77 77 98 65 52 43 60 53 51 74 75 76 82 83 82 96 87 69 65 64 44 38 34 36 38 39 40 45 49 54 66 70 74 75 77 79 83 91 92 93 91 77 82
96 97 87 100 86 72 53 56 53 66 57 83 78 80 85 86 83 73 72 68 42 34 32 38 40 42 44 46 51 56 62 66 67 70 72 76 77 79 78 83 82 81 88 84
92 98 98 98 96 68 55 61 64 64 76 78 84 83 81 76 80 84 61 44 34 33 37 41 45 48 50 52 57 60 66 63 69 74 74 76 78 76 64 73 86 84 84 86
76 69 82 74 75 57 61 64 63 71 79 86 86 87 81 85 84 80 51 42 39 40 41 44 49 53 55 58 62 66 68 68 73 79 79 80 81 79 76 74 84 87 85 94
72 69 86 76 56 63 61 62 74 81 81 86 85 84 80 78 78 56 46 47 46 44 49 51 56 61 66 66 68 75 76 76 79 82 81 82 82 85 84 75 78 85 97 97
73 73 72 84 70 76 74 75 80 86 87 82 81 78 72 79 57 47 48 49 49 52 56 59 66 72 72 75 80 79 82 83 81 79 77 82 87 88 80 76 82 86 85 89
75 70 83 73 62 70 65 79 85 88 82 76 72 62 53 45 46 47 52 54 57 61 62 67 73 75 78 85 82 82 84 87 88 91 89 96 94 95 89 88 84 76 84 81

GFSCGP_sfc_rhum_024.txt.gz
RH
28 28 30 29 25 21 23 27 29 32 26 46 62 69 71 78 80 84 87 86 86 86 83 87 93 95 94 94 92 93 96 95 70 84 79 82 78 85 91 69 60 60 62 65
28 32 28 33 32 30 29 30 33 35 30 46 61 60 63 68 83 83 82 86 86 87 86 82 90 94 94 93 92 88 83 75 70 81 88 87 90 75 64 64 70 68 69 70
32 30 31 32 38 34 42 34 40 35 39 42 49 57 61 58 70 70 72 74 76 83 88 88 89 92 82 70 64 60 62 63 71 78 80 77 78 78 74 72 71 72 71 71
38 37 32 33 34 38 42 42 36 34 42 48 43 64 62 68 74 74 76 78 77 79 80 73 69 63 66 67 64 63 62 64 64 65 65 68 75 81 86 77 75 74 71 72
42 39 35 34 38 38 44 39 39 42 46 46 48 64 62 67 78 76 79 76 83 83 71 65 63 63 70 70 72 68 64 65 68 71 75 80 86 84 78 74 68 66 68 69
42 37 37 40 38 34 38 46 51 59 57 64 58 54 61 72 67 70 71 74 76 81 77 65 65 65 72 69 67 73 68 73 72 73 73 77 76 75 73 72 67 72 80 86
40 40 37 37 41 40 47 54 76 77 80 76 57 59 52 53 58 62 67 70 73 75 78 76 68 68 67 70 75 73 73 73 71 69 70 72 72 71 68 69 73 76 84 89
52 47 38 32 42 44 49 53 78 65 84 73 57 69 59 55 50 55 62 66 67 71 76 75 67 69 75 73 72 68 64 69 69 69 70 72 70 74 74 73 77 81 85 85
53 51 40 36 38 42 52 56 52 75 84 83 73 61 59 62 63 62 62 62 66 71 71 72 74 76 76 74 73 71 68 67 67 68 72 74 79 80 82 81 83 86 87 75
48 48 42 35 40 39 43 45 58 73 63 62 68 70 73 70 66 63 64 68 75 74 74 76 77 75 73 71 70 66 65 64 68 75 76 72 73 72 75 82 84 86 85 78
49 45 45 43 46 50 48 54 61 63 75 75 82 72 59 60 57 61 68 73 73 73 74 74 74 71 63 60 55 58 60 58 64 74 74 72 70 71 75 83 86 83 80 76
57 59 70 49 45 51 48 53 51 68 56 88 84 64 54 58 59 61 71 69 76 74 71 68 65 61 58 56 56 55 54 53 70 68 60 62 70 78 78 77 79 81 82 83
49 60 72 54 46 43 51 59 62 66 76 72 82 62 58 64 65 66 71 78 78 76 74 73 70 64 59 61 60 51 54 65 61 54 56 66 78 80 79 79 80 80 84 85
59 62 55 56 49 53 47 54 60 57 80 70 72 53 58 70 69 75 81 80 78 74 68 70 71 65 63 61 52 48 51 54 52 50 63 73 77 79 81 83 83 86 88 92
54 61 64 69 67 56 49 48 60 56 58 60 56 61 49 62 69 73 77 79 76 73 68 67 67 65 60 54 48 44 45 47 52 51 68 75 82 84 87 87 89 92 94 93
70 74 61 77 72 70 63 49 52 57 58 63 64 60 54 76 79 81 78 78 76 70 64 62 60 57 52 47 43 42 42 46 52 55 75 81 81 81 84 88 92 94 95 80
73 78 62 57 76 65 59 55 56 59 58 54 64 56 78 82 79 82 84 77 73 69 63 57 56 55 47 43 41 40 42 48 52 60 72 77 80 84 87 90 94 95 92 89
80 80 81 75 72 56 44 53 57 54 55 54 67 69 76 80 84 80 78 76 75 67 59 59 55 45 46 43 40 45 45 50 54 72 75 79 83 88 90 92 93 94 89 89
72 84 96 75 74 47 34 45 61 60 54 65 66 79 81 84 78 81 76 73 72 64 62 57 45 44 44 41 42 46 49 54 72 72 78 81 84 87 87 89 92 93 95 88
76 75 75 95 64 53 42 53 56 52 74 62 70 80 86 81 93 74 74 71 68 64 45 38 38 40 41 43 47 49 52 62 70 74 76 78 82 82 84 85 88 92 83 84
97 98 84 100 81 67 48 57 56 63 60 81 74 80 89 86 79 73 75 70 65 43 35 38 40 42 45 49 52 57 62 68 67 73 76 78 79 81 82 78 82 83 90 84
89 97 98 96 91 70 53 59 63 63 71 78 82 83 80 82 79 80 72 56 37 34 40 41 45 49 53 57 60 64 69 67 70 76 81 80 81 79 75 76 86 86 87 86
78 72 82 73 74 55 57 66 65 65 62 81 82 83 76 84 87 79 53 41 43 38 42 46 48 54 59 65 67 72 73 78 81 84 85 83 76 80 79 77 84 86 86 95
77 68 83 71 54 64 64 60 64 70 72 80 84 85 80 81 86 61 57 56 46 45 47 51 56 62 69 71 75 83 83 83 89 86 85 84 77 79 83 77 77 86 97 97
76 73 72 81 70 72 66 73 64 77 83 84 85 84 82 81 70 62 52 49 45 48 55 59 64 74 74 78 84 82 85 90 89 85 86 86 87 96 83 76 85 87 86 88
77 69 81 77 56 60 58 64 83 83 86 84 84 81 64 62 51 53 56 52 54 59 61 62 69 74 76 88 89 86 89 92 95 97 95 91 95 98 93 84 88 80 85 82

GFSCGP_sfc_rhum_027.txt.gz
RH
25 21 22 22 20 15 19 20 20 22 26 45 58 58 59 61 58 63 64 64 66 71 81 84 88 86 83 82 82 84 95 97 88 77 74 70 65 71 76 54 50 51 50 51
25 27 22 29 26 25 24 25 27 31 33 42 50 56 60 60 66 63 63 65 68 80 82 87 84 81 78 81 82 80 76 67 66 52 54 58 62 57 48 49 53 51 53 49
29 24 28 29 30 31 32 30 30 30 36 37 40 44 58 60 64 67 68 68 75 82 84 83 82 79 78 75 74 71 65 53 51 58 57 57 55 51 47 47 47 49 51 50
33 30 28 29 31 30 38 30 30 30 30 31 34 26 48 64 70 71 70 73 76 78 75 74 73 61 55 56 56 57 59 52 56 56 51 56 50 52 57 52 48 46 55 54
35 33 30 33 33 33 38 34 32 32 33 33 34 30 46 64 71 69 66 65 67 68 60 58 49 48 50 54 55 54 52 51 54 56 58 56 59 55 51 51 54 54 55 55
34 29 30 30 35 33 40 39 42 45 42 40 41 35 38 61 59 61 58 59 62 58 54 50 50 50 49 53 57 61 56 56 56 55 58 59 59 56 50 51 50 50 52 56
35 34 30 33 34 33 36 40 52 56 60 52 47 47 36 40 48 52 56 55 57 55 53 52 50 49 54 59 60 58 52 53 53 55 54 55 55 54 52 52 52 56 53 55
39 41 30 31 32 34 40 40 61 54 64 54 45 51 37 45 39 47 48 51 56 56 55 55 54 54 56 57 54 53 50 50 50 51 51 56 58 54 54 57 56 57 58 59
46 40 30 32 31 32 40 41 43 62 69 61 45 44 39 50 49 52 52 55 55 53 56 56 57 58 58 55 57 56 50 49 51 54 56 58 57 58 56 58 61 61 65 59
42 44 34 30 32 36 35 39 47 52 58 46 41 50 41 56 52 53 55 55 53 53 57 59 57 60 56 54 57 56 51 48 51 55 57 55 54 51 53 58 60 62 62 62
37 44 43 36 37 39 41 45 53 48 55 49 53 34 45 46 49 53 51 51 54 57 58 59 57 55 49 47 46 47 45 44 51 53 55 49 47 51 52 54 56 57 60 52
44 54 57 37 36 39 36 41 44 53 47 66 60 41 38 47 48 49 50 54 57 58 58 56 55 49 45 44 44 44 41 46 51 43 40 43 48 50 49 51 52 55 55 58
47 56 57 44 36 35 39 46 48 54 61 60 81 38 39 50 51 49 51 56 61 59 56 52 51 48 46 46 48 40 46 50 38 32 34 40 48 50 52 53 54 53 59 65
58 53 50 46 38 42 43 52 46 46 62 52 54 38 34 47 53 56 58 61 58 59 57 52 50 46 47 48 44 41 41 40 36 32 36 46 56 57 56 57 56 61 66 71
50 53 52 54 54 46 37 43 51 43 45 52 41 44 34 35 46 51 60 64 62 60 56 52 51 50 48 49 42 37 36 36 36 38 39 53 60 60 59 59 63 67 72 71
60 63 54 59 60 58 52 44 43 50 49 46 47 46 36 42 52 59 64 64 62 58 53 49 50 52 49 46 39 37 34 35 38 40 44 57 63 59 59 65 69 70 71 67
62 68 59 59 60 52 60 50 45 45 46 43 49 37 56 59 60 55 62 63 61 58 54 50 52 48 45 39 38 34 31 36 40 42 49 58 62 60 64 63 61 62 73 71
68 64 68 73 71 60 36 45 43 45 44 42 43 45 51 52 59 60 58 62 62 58 54 50 49 45 39 34 33 35 32 37 42 45 56 59 60 62 61 62 59 61 69 68
59 70 81 78 58 42 27 36 49 56 37 43 42 49 61 66 62 60 62 59 58 57 51 48 46 38 36 32 32 34 37 39 49 52 54 56 61 61 62 59 60 62 67 70
64 66 72 78 64 61 41 33 47 43 60 43 51 64 70 63 73 49 62 62 61 54 49 40 35 34 32 34 37 40 39 44 47 52 53 56 60 62 60 64 61 59 65 63
96 95 84 82 80 59 42 41 46 54 53 55 60 62 72 67 59 57 63 64 54 46 34 37 33 33 36 40 42 43 46 48 49 55 57 57 61 62 60 60 56 56 59 66
75 91 92 89 80 70 45 49 61 56 55 55 65 66 71 63 68 66 66 57 41 33 35 36 39 40 44 46 48 45 49 50 56 60 61 61 63 61 57 60 57 58 64 69
70 67 72 63 66 51 49 57 52 56 53 53 65 63 66 73 68 62 54 40 35 36 35 35 37 45 48 51 52 53 55 62 62 63 65 61 64 62 59 59 59 59 60 68
68 61 71 67 49 54 54 50 53 52 55 55 61 61 70 69 71 52 47 44 49 49 37 42 44 46 51 55 59 65 64 63 69 69 66 61 64 64 64 63 56 58 68 71
67 67 68 71 61 58 52 58 56 56 62 63 66 70 71 72 63 52 57 52 47 42 45 45 48 56 56 57 66 65 65 73 72 71 70 72 71 70 72 71 60 62 64 68
69 65 76 73 51 53 52 48 60 67 68 69 74 75 72 60 52 50 59 64 46 49 54 51 57 58 57 66 69 70 70 73 77 76 73 76 77 79 79 76 68 77 81 82

GFSCGP_sfc_rhum_033.txt.gz
RH
18 18 18 14 14 15 13 12 10 10 12 11 12 10 14 19 20 21 24 28 30 32 32 39 34 30 33 43 50 54 67 68 63 56 54 54 55 46 48 43 45 45 41 41
18 20 16 14 12 12 11 11 14 12 13 15 10 11 16 18 19 19 22 26 28 30 36 42 43 42 43 48 58 62 63 62 54 45 45 43 42 42 38 38 43 40 41 39
24 29 17 16 12 12 12 13 15 14 14 14 15 15 20 22 22 23 22 22 25 29 37 44 45 46 51 54 59 65 60 58 48 42 39 39 41 42 39 40 39 38 40 37
24 17 16 17 14 12 17 16 14 16 18 19 16 19 18 21 26 30 30 29 27 29 34 41 45 54 56 62 62 53 49 43 40 39 38 41 35 36 36 36 36 38 40 38
23 18 16 17 18 17 22 17 17 16 15 21 16 14 42 22 23 27 28 31 32 36 38 42 47 50 47 49 48 42 41 36 38 39 37 40 38 40 39 39 43 42 40 39
20 16 17 18 19 18 18 19 20 18 17 27 15 17 16 21 19 23 28 32 36 38 40 40 39 38 38 44 46 44 37 35 38 39 41 42 46 40 37 36 35 28 28 28
16 18 18 17 20 19 17 20 33 37 32 32 19 18 15 12 19 19 32 36 38 39 38 34 32 30 35 42 45 43 35 36 39 42 43 44 41 37 34 31 30 33 31 30
22 29 19 18 19 18 20 18 34 34 30 23 20 19 16 17 19 21 28 32 37 37 34 29 28 29 33 38 39 37 36 37 40 40 37 34 30 30 30 32 33 30 31 32
22 24 18 20 19 16 20 24 20 28 48 40 16 13 20 22 22 23 29 31 36 33 30 28 28 30 34 37 40 40 37 35 37 35 32 35 34 36 33 31 32 31 34 27
19 25 19 22 20 20 23 18 27 26 41 34 15 14 17 24 22 25 29 32 33 30 28 29 28 33 34 37 41 41 37 34 33 32 34 35 41 33 28 31 32 32 32 32
16 20 28 23 24 19 25 24 22 22 28 34 26 17 14 17 20 24 26 29 30 31 28 30 31 33 36 37 41 40 33 30 30 31 36 41 33 29 30 30 30 30 34 34
22 22 33 26 22 20 21 22 22 36 28 33 43 22 14 17 17 22 24 26 28 28 26 28 32 35 37 39 38 35 31 28 30 32 34 36 29 26 28 29 29 32 35 35
25 25 35 31 26 22 21 19 20 20 30 32 53 24 14 17 17 18 20 23 26 28 27 28 32 36 38 38 35 32 30 29 30 32 31 26 26 27 29 28 31 34 36 35
42 25 28 36 24 20 28 20 19 23 37 30 24 17 14 16 16 15 19 19 23 27 28 30 33 36 36 35 33 31 30 32 35 27 27 24 26 30 29 30 34 37 36 38
32 34 26 22 24 22 20 19 20 20 20 29 22 12 9 9 11 13 14 18 20 27 32 33 35 36 34 34 32 29 31 36 33 35 24 25 28 30 31 35 38 39 39 39
30 36 36 41 28 27 28 22 18 17 17 15 14 16 11 14 11 15 16 19 21 26 31 32 34 34 34 33 32 30 34 36 38 29 26 27 28 28 33 37 40 39 38 38
38 40 44 36 32 32 63 36 24 18 16 19 26 18 12 16 17 18 18 22 24 26 29 32 33 34 33 31 32 34 36 35 29 26 26 27 28 32 35 33 33 35 40 42
44 44 52 56 68 81 17 16 16 21 17 14 14 13 12 14 19 21 20 21 23 25 26 30 32 33 31 30 32 32 28 28 28 27 26 25 31 33 33 34 35 39 41 44
30 41 62 89 39 24 16 14 19 22 18 16 17 16 14 20 28 25 22 21 22 23 26 29 30 31 31 30 30 28 30 23 26 26 25 25 29 32 34 35 37 39 44 45
33 37 49 56 85 87 33 22 22 23 32 20 20 20 21 22 38 24 24 24 27 28 28 31 31 31 31 28 27 29 29 32 29 25 26 28 29 33 35 38 40 42 44 42
74 78 80 64 82 46 22 21 26 41 42 28 25 24 26 29 31 36 31 28 28 28 30 32 32 32 28 26 34 45 39 34 26 25 30 31 32 34 34 38 41 44 44 47
57 74 89 71 97 79 22 26 37 38 28 26 29 28 36 35 32 37 34 32 32 33 33 32 31 27 33 49 46 41 28 22 32 38 36 34 32 31 33 43 46 45 47 53
47 40 50 41 43 29 24 25 24 27 33 31 32 30 32 34 33 31 36 36 36 33 27 25 34 55 56 48 39 28 27 44 40 38 39 38 37 39 41 44 45 45 46 54
34 34 43 40 23 23 23 24 25 27 32 31 31 33 35 37 38 37 40 37 33 26 32 53 60 60 55 36 30 35 36 38 44 44 41 41 44 46 44 44 43 44 59 65
39 36 35 39 30 28 24 31 37 40 40 39 39 40 47 46 43 43 38 34 36 46 56 59 61 51 41 34 38 35 40 46 42 41 45 51 54 53 49 43 43 51 55 67
33 39 56 55 41 48 41 44 49 47 48 47 48 47 43 42 40 40 46 54 78 80 62 59 63 54 41 41 48 46 40 41 51 56 55 64 62 59 54 50 51 65 77 80

GFSCGP_sfc_rhum_036.txt.gz
RH
21 22 22 20 23 18 17 17 14 11 9 12 23 17 14 15 18 26 28 30 31 29 31 33 36 37 40 56 59 64 77 81 78 72 74 70 73 65 66 60 61 61 59 55
26 21 26 21 17 17 16 16 19 11 10 11 12 11 12 14 16 20 26 30 32 34 33 42 41 40 48 60 64 73 72 77 67 59 63 65 63 62 59 59 61 57 57 54
35 25 26 18 15 17 15 15 19 16 11 10 14 11 15 15 14 15 22 24 28 33 40 45 44 50 56 64 67 74 73 71 66 64 54 56 58 63 59 60 61 58 54 51
40 25 22 18 16 14 17 19 17 15 17 20 20 27 19 18 19 18 20 24 27 29 34 42 48 50 54 71 73 71 71 62 61 56 54 59 54 56 56 57 57 56 55 52
44 40 28 18 20 18 21 22 20 14 17 29 21 28 30 22 26 24 28 26 26 27 32 39 46 49 59 74 81 73 66 59 55 51 54 59 58 62 60 62 64 59 64 58
29 37 42 24 19 17 19 20 18 19 21 57 39 34 30 29 27 28 25 28 29 31 38 38 44 52 57 63 66 72 66 48 50 52 53 58 61 58 61 60 61 56 52 51
16 18 18 20 26 16 16 19 42 77 74 51 16 19 29 25 25 62 29 28 31 38 40 42 48 52 53 56 58 56 46 45 50 55 56 60 60 54 50 49 50 51 50 53
21 42 18 16 17 38 40 17 48 67 93 46 19 22 18 18 17 19 25 31 36 40 44 44 43 43 46 53 54 51 43 44 48 56 56 55 50 50 46 54 52 50 51 55
41 38 25 18 14 16 19 23 19 35 56 66 22 12 22 19 19 19 30 33 39 39 40 38 36 39 44 48 55 55 44 42 49 54 52 53 50 51 56 52 47 51 50 39
46 78 38 21 17 18 20 17 34 31 52 47 20 16 34 25 21 22 30 36 37 38 36 34 32 39 41 45 52 56 51 45 49 47 53 49 53 50 51 44 47 46 47 46
30 45 33 23 23 16 24 25 21 18 34 58 55 26 17 17 18 23 27 33 36 38 35 33 32 34 39 44 48 52 48 43 44 43 49 55 51 51 45 46 46 44 46 47
19 24 41 25 18 17 19 24 22 62 37 44 65 40 15 18 16 21 23 26 32 34 33 31 32 36 39 44 46 50 49 43 42 43 50 52 48 47 46 44 43 46 47 49
26 31 46 29 24 21 22 18 17 22 39 44 78 39 15 15 15 16 22 23 28 32 31 31 33 36 40 44 48 47 47 41 37 38 43 45 46 42 42 43 43 44 47 49
43 26 26 43 26 23 29 23 16 21 66 46 39 19 15 15 16 15 20 22 23 30 30 29 31 37 41 43 46 44 44 42 39 39 41 42 44 43 41 41 44 48 49 50
31 30 24 20 19 22 24 21 18 19 23 38 31 18 14 13 16 15 17 20 19 20 27 29 32 41 41 44 44 41 41 42 43 44 42 47 42 39 42 46 48 52 54 50
30 42 37 39 27 25 29 22 21 20 17 17 16 17 12 14 16 17 17 16 18 20 22 30 34 35 39 41 41 40 41 44 44 49 46 40 39 37 43 48 53 55 55 51
38 52 57 63 34 35 59 37 27 22 18 19 27 22 16 15 14 19 21 19 23 23 24 29 33 36 40 41 43 44 40 44 49 44 42 37 37 38 46 44 44 47 53 57
44 52 72 80 74 75 23 16 15 20 16 14 14 16 15 22 21 19 19 23 24 26 26 27 32 37 38 39 40 42 38 44 42 39 38 38 36 40 42 46 47 52 54 59
32 55 81 97 60 32 22 16 19 20 21 18 19 18 16 17 23 25 22 25 26 27 27 29 31 35 38 38 38 38 38 38 39 37 37 33 36 42 47 46 49 54 56 60
29 43 77 76 90 84 37 21 19 20 47 24 24 27 26 23 54 41 32 28 30 26 29 29 33 35 38 37 36 36 36 42 43 44 39 36 42 45 44 52 53 55 56 55
80 87 91 78 95 62 24 22 23 51 56 31 30 31 33 40 41 42 37 34 28 30 35 37 36 36 37 41 44 51 60 62 54 41 44 50 53 46 45 49 52 56 59 65
73 86 96 88 100 89 22 26 41 46 38 34 33 36 44 41 38 37 32 36 34 34 35 33 47 56 54 53 55 58 54 38 48 54 52 45 46 40 36 56 59 61 64 74
57 47 66 58 64 36 25 29 27 32 35 37 40 36 38 43 39 37 39 40 37 30 37 46 56 62 60 58 51 48 42 43 44 52 56 51 48 45 45 57 62 68 67 81
32 33 54 48 25 24 24 24 32 37 43 38 38 41 46 52 48 44 42 38 45 51 56 58 62 62 58 48 42 45 44 48 54 59 55 52 56 57 58 56 60 64 82 89
42 36 35 39 31 31 39 44 49 45 46 47 44 46 46 46 44 46 51 59 64 65 62 60 61 59 53 48 47 41 43 54 56 51 52 59 64 70 66 58 60 78 76 86
35 38 70 72 47 52 58 48 45 48 50 46 46 53 50 51 62 68 76 73 73 78 73 70 66 58 48 43 45 49 49 46 56 61 65 82 90 84 72 65 65 66 78 76

GFSCGP_sfc_rhum_039.txt.gz
RH
49 36 46 39 31 26 28 30 24 20 15 31 28 26 28 26 36 42 41 41 39 34 34 35 39 49 57 68 70 82 89 96 94 97 98 94 95 90 84 77 68 69 68 64
56 52 37 28 24 25 32 32 25 20 15 23 26 27 24 22 27 38 42 44 40 48 46 46 45 57 59 68 81 86 85 90 85 87 87 81 79 78 74 71 73 68 65 66
52 38 28 26 28 25 28 28 22 25 18 17 20 28 22 21 23 28 36 36 37 45 51 51 49 68 69 69 84 86 89 86 80 80 75 78 75 80 77 77 73 65 64 59
41 36 34 34 28 21 26 22 25 26 26 29 27 42 33 25 23 22 33 38 41 42 51 51 55 70 75 87 83 80 83 81 76 80 64 68 76 72 73 75 73 68 59 56
45 38 41 41 32 24 29 26 28 30 28 36 33 39 38 25 30 26 29 34 42 42 53 54 59 64 81 86 88 85 83 74 79 76 57 66 76 74 80 77 72 68 64 60
39 36 41 30 25 24 26 30 31 42 44 54 28 36 46 30 23 29 27 38 37 44 50 54 58 77 84 83 84 84 87 85 77 58 66 71 71 71 67 69 71 70 73 67
31 28 30 33 30 27 31 34 62 71 82 74 36 41 37 29 25 29 30 34 42 55 55 64 72 72 80 88 89 90 87 73 60 58 68 70 68 67 66 67 64 61 56 61
36 50 34 28 35 38 32 39 66 76 91 74 42 43 32 26 30 37 34 38 50 56 58 63 64 70 77 80 83 79 65 54 64 67 69 63 52 56 63 61 59 58 59 56
51 53 41 32 35 26 35 38 34 66 77 87 52 26 30 26 34 43 54 48 58 62 63 64 64 66 70 65 72 61 57 59 65 69 62 54 60 61 61 57 54 58 53 46
55 57 46 39 33 25 28 27 46 55 58 62 40 35 49 37 33 46 50 57 58 58 57 56 55 63 65 65 69 66 63 64 67 62 60 58 58 56 59 53 49 50 49 49
52 53 58 48 44 33 34 37 34 35 56 66 77 45 30 29 32 34 52 50 56 56 55 52 51 55 58 62 64 63 64 65 60 54 57 65 61 67 48 48 50 49 51 48
46 57 78 50 35 23 25 38 46 71 46 60 79 55 23 23 27 30 30 44 52 49 50 46 46 52 55 59 63 64 64 56 46 51 58 59 57 49 48 49 48 50 49 51
41 45 62 44 38 34 32 28 27 40 61 56 73 54 22 19 23 27 30 34 47 52 49 45 45 48 54 58 60 63 63 54 46 49 50 50 54 48 49 48 51 51 52 54
49 40 46 55 40 38 42 40 30 38 75 58 54 43 27 24 24 24 24 28 45 46 44 43 43 45 46 50 55 60 59 50 50 47 50 54 53 46 46 49 45 55 54 53
44 45 41 33 33 31 31 34 32 29 42 52 43 37 28 27 24 25 28 30 28 30 40 44 46 59 62 66 66 61 58 55 46 49 47 55 54 53 51 50 53 58 55 50
43 56 50 57 40 37 41 34 34 31 32 33 31 33 24 25 24 24 23 23 27 30 32 42 60 64 60 66 64 58 49 51 49 49 52 57 59 54 53 54 54 56 56 55
55 61 73 73 48 44 57 41 35 36 34 36 39 34 33 32 29 31 30 30 30 32 32 37 41 53 59 62 61 59 53 52 55 51 52 54 54 50 51 47 48 50 52 56
66 65 82 82 74 57 40 26 23 27 28 28 27 27 33 32 35 36 32 36 36 34 36 36 40 48 58 62 55 56 53 56 48 48 52 56 55 50 55 54 55 55 59 60
60 78 88 76 83 53 35 30 34 34 40 34 37 35 34 32 37 53 43 39 40 38 38 41 51 51 49 48 50 47 48 42 44 47 46 49 54 53 56 58 60 60 53 63
52 70 72 91 85 72 55 31 30 30 64 43 42 46 48 48 77 69 48 46 48 45 47 47 49 51 47 53 57 63 64 61 58 56 55 56 58 57 62 71 62 59 61 60
89 85 84 96 92 77 43 31 37 51 64 48 45 49 50 57 63 54 48 48 44 51 57 59 62 64 64 60 59 66 58 58 53 56 57 56 61 65 64 61 61 60 64 68
77 94 96 97 98 82 34 36 50 64 52 48 48 54 56 58 58 56 49 47 52 62 64 64 68 67 61 56 57 58 55 52 52 55 59 62 61 59 52 60 65 66 69 78
80 80 86 76 83 61 41 48 56 56 60 60 63 66 66 68 64 51 62 65 69 73 75 71 68 60 50 44 46 49 56 50 56 64 70 67 63 58 55 64 70 76 76 84
55 46 68 57 50 43 62 58 57 60 65 57 55 59 59 59 59 64 68 70 70 68 63 58 59 59 60 53 52 57 56 59 67 70 71 71 70 67 70 70 75 80 92 95
64 50 51 54 66 68 64 65 62 59 58 58 56 57 61 67 72 76 76 70 65 64 64 64 67 69 63 59 57 54 61 64 66 70 69 72 76 79 83 80 80 85 85 88
56 58 74 88 74 72 74 66 62 64 63 62 68 73 70 73 78 75 77 72 76 82 77 75 72 67 61 59 61 60 60 64 71 74 78 89 90 92 88 87 81 80 81 80

GFSCGP_sfc_rhum_042.txt.gz
RH
50 45 48 43 38 32 33 33 35 31 27 36 34 30 33 38 55 64 61 52 52 57 53 51 51 55 61 67 79 84 89 95 90 92 97 98 98 96 94 90 78 73 75 77
50 53 41 37 31 33 34 34 37 27 23 33 35 30 31 33 43 47 50 45 46 51 48 49 50 56 62 72 83 84 84 91 88 89 96 93 95 91 87 83 76 76 74 73
48 39 36 36 31 31 33 40 36 31 26 22 32 30 29 27 29 43 40 37 37 42 46 49 57 62 63 80 88 86 87 87 87 89 90 87 82 84 84 85 84 76 73 67
44 37 39 39 38 34 35 29 28 27 34 34 28 37 36 27 26 39 46 45 43 41 46 48 60 64 69 87 86 86 87 88 85 88 86 78 72 76 82 83 79 76 70 65
40 43 41 43 36 33 33 34 32 33 38 41 38 37 35 32 29 28 41 47 44 46 47 53 68 62 67 90 93 92 90 84 75 83 76 73 78 79 83 83 78 75 68 67
38 42 39 34 29 30 30 35 41 52 47 50 41 40 40 34 24 24 31 40 49 49 52 51 72 72 81 92 93 94 87 80 79 83 72 75 74 80 81 84 78 79 80 71
39 39 38 33 35 32 32 40 60 65 75 60 45 46 39 32 30 29 34 40 47 51 65 77 90 86 93 93 94 92 84 85 86 84 73 77 75 75 74 74 82 76 70 67
48 48 35 36 40 47 47 41 65 55 78 63 48 55 41 29 28 27 35 37 52 60 64 74 82 89 88 91 92 89 86 87 78 74 75 73 68 72 74 64 61 64 64 62
49 52 44 38 36 35 41 45 40 68 82 84 60 37 32 33 40 46 53 48 67 76 74 73 78 85 89 90 93 92 88 73 78 83 71 59 65 58 60 61 65 62 60 54
46 58 46 39 36 33 33 30 45 58 62 72 47 40 48 42 43 52 55 55 68 71 75 79 80 86 87 84 84 80 75 71 75 65 63 64 64 64 66 68 64 58 58 57
51 44 47 48 40 35 40 39 40 43 62 64 73 44 30 38 42 50 54 56 67 70 69 70 73 76 75 77 73 72 64 67 62 55 69 71 76 75 62 64 62 61 58 55
48 60 63 42 36 38 40 41 43 68 45 67 79 50 33 32 36 49 55 56 65 62 62 60 65 68 70 69 68 67 66 71 64 56 59 63 60 51 56 57 54 58 54 58
47 60 70 49 40 44 39 34 40 55 65 59 73 55 28 26 27 32 42 54 57 62 63 57 60 63 63 64 65 66 69 64 56 57 52 52 51 51 57 59 58 60 59 59
47 49 54 59 41 42 49 45 47 44 74 60 60 44 31 28 27 26 32 37 58 59 56 53 51 55 57 60 62 67 68 59 65 56 50 54 57 54 56 56 58 59 61 59
42 47 40 37 37 39 39 36 41 37 43 51 40 42 30 30 30 30 29 32 44 49 51 55 57 60 68 72 72 74 71 68 64 59 55 66 63 60 61 64 64 66 62 56
48 48 50 52 47 41 45 37 39 37 38 41 37 42 36 33 34 33 31 32 36 38 51 60 58 64 70 74 75 78 78 73 68 66 71 71 64 55 59 61 62 62 59 57
55 65 72 68 53 49 64 45 37 37 40 36 44 38 40 42 38 36 41 40 41 42 43 53 67 68 73 75 78 83 70 66 64 59 61 59 58 61 64 57 58 55 54 53
67 72 82 82 69 70 48 35 33 41 39 34 34 38 44 47 54 49 44 46 44 46 54 62 67 70 72 65 67 65 62 60 59 60 60 58 60 60 63 66 63 69 61 63
59 79 86 75 78 57 41 28 32 42 49 44 44 45 42 49 56 56 55 59 63 60 57 57 56 56 57 58 56 54 55 54 56 59 61 63 64 67 70 82 82 71 70 67
65 79 79 93 73 69 52 36 34 40 68 46 50 56 54 55 81 74 61 60 63 60 60 64 63 64 65 63 60 62 64 65 71 73 70 70 75 82 81 76 78 76 74 70
87 89 82 97 84 69 49 35 38 46 52 51 53 54 55 66 71 65 66 68 65 65 66 63 61 60 62 60 60 62 67 70 64 65 72 83 78 75 72 76 74 71 71 74
68 88 93 96 91 66 48 40 45 55 60 58 59 65 78 71 62 65 68 69 68 70 67 62 64 61 57 52 52 56 61 60 64 74 69 69 68 64 61 73 75 74 80 86
71 66 78 74 76 59 59 54 60 61 66 73 76 75 72 67 70 74 78 79 78 74 66 50 49 53 54 54 56 66 67 61 68 70 72 73 72 71 70 76 79 84 86 92
63 67 76 67 72 73 75 72 70 68 68 66 67 65 64 72 73 75 74 72 70 61 60 58 59 62 66 62 61 64 65 67 69 73 75 77 79 76 78 80 84 90 94 93
67 56 63 90 82 72 73 71 66 65 67 69 67 68 72 75 76 73 73 70 68 69 68 66 69 71 69 65 65 64 65 68 69 74 76 78 81 82 85 86 90 90 88 89
61 59 74 86 72 78 82 75 67 70 72 71 74 78 74 72 78 82 89 89 85 80 74 74 75 69 67 67 70 71 72 74 78 79 82 86 88 90 88 88 82 81 84 83

GFSCGP_sfc_rhum_045.txt.gz
RH
52 46 50 44 44 36 37 37 35 31 25 38 40 36 35 53 69 82 83 81 84 81 74 72 77 72 75 80 87 88 94 97 93 94 96 98 98 98 97 93 82 80 77 80
50 51 41 39 42 37 40 39 37 30 27 40 45 38 35 50 60 66 75 72 68 74 75 72 71 71 73 74 88 93 90 95 90 87 97 95 97 96 93 89 83 78 82 81
49 38 40 38 40 37 40 42 35 35 29 36 36 39 29 32 38 59 61 58 56 64 69 70 66 70 72 76 88 89 90 91 88 88 93 96 92 92 91 90 85 84 79 78
46 39 43 42 42 37 45 33 35 37 38 38 32 47 36 33 33 52 55 55 52 57 59 62 61 66 70 72 77 80 87 89 88 88 88 90 88 95 92 87 86 83 79 72
40 44 45 45 37 34 38 36 37 39 39 44 43 38 33 36 36 42 48 49 46 49 54 57 59 60 64 75 88 88 93 90 85 85 90 95 93 90 87 87 83 83 79 73
38 46 40 35 32 33 33 38 42 52 49 54 41 43 43 38 29 27 38 46 43 49 51 53 57 65 68 94 95 96 95 92 85 85 90 93 94 89 90 89 88 85 82 79
42 41 42 41 41 36 36 45 61 63 72 60 46 51 41 32 30 30 33 41 47 51 64 72 81 72 83 96 96 96 95 92 87 80 85 90 90 86 87 84 84 84 76 74
48 48 39 37 40 42 47 42 64 54 73 56 53 57 39 34 36 35 32 42 54 61 65 79 76 81 90 93 94 94 94 91 86 87 87 90 88 81 78 77 78 72 64 64
52 47 48 43 40 33 47 50 42 69 82 84 58 47 34 34 47 52 53 50 58 64 65 74 84 89 93 91 93 94 94 89 93 90 91 92 92 85 81 74 74 72 64 60
42 47 46 46 42 38 38 35 48 62 55 65 55 48 48 38 34 52 59 58 75 84 87 86 87 91 93 92 93 95 95 94 92 87 84 81 82 69 70 73 71 63 66 75
50 42 47 49 47 39 42 43 44 47 62 64 73 51 32 39 38 45 55 56 77 84 89 85 84 87 92 94 96 95 94 87 84 70 76 78 75 70 66 65 65 65 66 63
48 51 57 42 43 43 40 43 44 68 50 72 81 54 33 34 40 50 48 56 71 76 76 81 82 89 92 90 88 88 86 82 76 71 77 80 72 65 64 62 63 61 66 67
51 58 62 47 42 48 44 44 49 57 66 65 75 56 30 30 28 35 51 56 64 72 79 77 84 85 83 83 80 79 84 86 77 75 77 78 73 68 70 68 63 72 74 71
52 58 50 53 44 44 52 43 45 51 78 61 62 45 34 30 31 27 35 40 58 70 70 72 75 80 82 81 86 86 90 84 74 71 70 74 73 78 77 71 66 66 65 63
44 49 49 45 37 41 41 42 48 44 46 55 46 49 38 31 31 32 30 40 56 66 66 68 67 70 76 84 88 86 86 82 72 72 75 82 71 67 66 66 70 71 65 60
49 54 47 66 48 44 46 40 43 43 42 44 44 42 41 38 41 41 42 42 46 51 61 63 65 65 75 83 90 87 84 86 81 82 77 71 67 64 70 70 70 65 60 52
53 65 66 55 59 54 65 49 41 40 41 40 46 39 42 47 44 48 49 47 48 53 62 67 79 80 86 90 90 86 81 76 75 72 68 64 65 66 68 68 69 70 81 86
66 69 77 78 72 72 44 44 39 44 46 42 42 43 49 55 61 63 60 57 66 67 65 66 73 75 79 79 76 71 68 69 67 62 62 67 71 73 72 73 83 90 89 82
64 80 84 76 78 58 47 43 42 42 48 47 49 55 59 61 62 66 65 66 69 70 70 71 69 67 64 61 62 62 67 66 66 67 67 68 72 75 84 90 94 88 80 79
66 76 80 87 76 75 57 43 36 42 64 46 55 56 58 62 77 77 70 70 73 70 69 72 70 65 65 65 65 70 72 72 75 71 69 71 80 92 95 91 79 80 81 80
89 89 86 97 84 72 50 40 39 46 49 55 57 60 62 64 74 78 74 74 70 69 65 62 63 67 67 64 64 69 70 73 71 82 92 91 84 79 77 79 80 77 79 82
74 89 91 93 81 68 48 45 42 51 67 60 62 73 80 78 77 77 74 75 70 68 67 62 64 66 62 58 62 69 78 74 76 72 70 71 72 69 66 78 81 81 85 88
62 69 80 71 72 57 67 53 64 62 61 69 76 77 71 78 80 80 82 77 71 66 61 56 57 60 58 58 59 67 68 69 72 72 74 75 75 76 77 82 83 87 89 93
68 68 75 72 74 86 84 76 75 73 77 79 78 67 70 81 81 81 77 75 73 70 62 61 60 63 66 62 63 73 72 71 72 75 77 80 83 81 82 85 86 92 94 93
71 67 83 91 87 81 77 76 75 74 73 73 72 72 75 77 77 76 78 77 76 73 68 66 68 68 68 70 76 78 83 80 81 83 85 86 88 88 86 84 86 85 85 88
66 71 82 87 76 75 82 77 74 74 78 76 78 80 74 73 79 80 87 85 77 75 69 67 70 74 79 86 93 93 92 91 92 88 90 95 94 93 90 88 83 80 84 82

GFSCGP_sfc_rhum_048.txt.gz
RH
52 47 50 44 44 40 40 39 35 39 30 45 47 44 47 68 82 90 96 95 95 94 82 84 84 89 82 90 86 89 96 96 97 99 99 99 99 99 98 95 87 85 82 80
51 53 41 42 47 46 43 42 40 32 31 40 48 49 37 57 73 76 91 94 93 92 92 87 90 92 86 84 85 94 94 96 95 94 97 96 98 98 98 95 89 84 83 82
51 40 41 45 43 41 42 42 40 39 36 43 41 41 36 37 56 65 71 76 77 83 87 85 86 88 85 86 85 91 92 94 93 93 93 98 97 96 97 95 90 83 85 82
48 42 41 48 43 38 47 36 37 37 40 46 38 44 36 37 48 55 63 78 72 72 75 77 80 84 83 80 80 87 91 94 92 93 86 92 94 96 97 93 89 80 85 82
42 49 50 46 40 36 38 39 42 43 46 49 45 41 33 40 37 40 53 64 65 62 66 75 76 71 74 82 91 92 94 95 93 92 88 93 95 97 96 93 85 87 86 79
41 48 43 39 38 36 36 41 45 55 52 56 45 43 45 38 32 34 37 55 59 58 61 64 70 72 75 90 95 95 96 95 92 91 94 92 95 96 95 95 89 91 87 85
46 44 45 44 45 41 43 46 62 64 72 61 49 56 49 37 32 32 37 45 50 53 60 67 73 71 78 90 94 95 96 96 93 93 91 88 91 95 91 87 88 87 84 84
50 48 42 41 39 42 47 45 66 55 71 53 53 58 37 37 44 46 37 35 56 57 56 65 63 68 75 88 93 92 95 92 93 92 89 90 93 95 94 90 81 79 76 72
56 46 47 46 44 37 50 51 45 71 82 84 58 46 30 39 46 51 50 54 63 63 61 60 73 74 85 93 93 92 91 90 93 92 91 96 97 97 94 94 87 78 73 69
41 46 52 46 43 43 42 40 51 63 60 62 54 52 45 38 40 57 60 67 69 72 78 75 87 92 92 92 93 93 92 93 91 92 96 97 96 95 94 91 85 78 74 75
48 38 45 52 48 43 47 50 50 50 62 62 72 53 37 34 41 42 52 56 64 83 84 88 92 95 94 93 95 94 95 94 98 97 97 96 96 92 90 87 85 80 74 84
46 49 50 41 44 43 42 45 48 68 52 73 81 56 36 32 35 42 45 54 73 82 87 90 91 94 96 95 96 96 96 97 96 93 93 93 91 88 89 90 82 81 79 70
49 53 54 44 43 51 50 48 50 60 68 67 77 55 32 35 31 31 39 51 62 76 81 86 90 94 94 95 96 97 97 97 93 92 93 92 89 87 86 81 75 71 74 77
48 58 46 46 42 46 59 48 56 56 79 65 64 48 36 34 34 31 30 41 51 69 75 82 86 90 90 92 94 95 96 95 93 91 93 94 92 83 78 74 72 72 71 70
46 49 53 48 42 44 45 47 52 50 52 56 49 52 41 39 36 35 34 54 54 73 79 77 77 83 90 94 94 95 95 93 91 88 87 92 87 77 75 74 74 78 73 66
53 53 50 65 52 50 51 46 52 51 50 49 49 47 40 45 50 49 50 55 61 68 73 83 76 72 83 90 94 94 92 88 85 89 83 74 70 70 73 71 68 67 66 69
54 64 66 57 59 54 66 50 46 46 48 44 54 44 43 51 48 55 57 58 70 76 77 80 85 90 97 96 93 95 90 84 80 77 70 70 70 68 68 66 69 72 85 94
67 64 74 79 72 67 46 49 45 47 45 43 44 46 47 52 75 74 76 75 71 72 73 76 81 81 84 81 79 76 72 72 73 74 69 67 70 73 76 82 89 94 95 96
68 76 82 75 77 57 49 44 46 44 40 46 49 64 67 70 69 76 73 75 78 80 80 77 73 72 71 72 71 71 72 71 70 66 70 74 77 81 86 89 95 97 96 90
66 74 73 86 75 72 55 46 40 38 53 49 59 68 67 68 60 76 78 77 76 74 76 73 72 72 74 75 69 69 69 68 72 73 74 78 88 96 96 96 93 86 83 83
88 88 80 96 84 75 56 43 40 49 53 55 56 62 68 62 68 84 79 78 73 71 71 69 70 74 77 73 73 82 84 86 86 93 90 80 76 76 79 81 82 81 83 85
77 87 91 90 86 77 47 46 46 51 70 62 63 66 76 88 84 82 78 75 72 72 71 68 70 73 75 76 77 84 86 80 72 69 68 70 73 72 72 82 84 82 86 89
71 70 78 72 74 60 57 51 54 58 63 65 70 76 78 84 84 80 78 71 67 67 68 66 67 69 69 68 66 70 74 72 75 76 81 84 83 82 83 84 87 88 90 92
70 66 73 69 66 74 83 78 77 78 73 79 77 73 74 84 83 83 76 72 70 70 71 68 67 72 75 70 74 79 79 80 84 88 90 90 90 89 89 90 90 94 96 94
72 68 80 79 87 86 79 78 78 82 81 76 77 78 80 81 82 78 79 77 77 77 76 70 72 75 83 86 91 92 90 85 86 85 88 88 88 91 87 87 92 89 89 95
74 72 78 70 68 63 68 79 80 81 82 78 80 83 80 76 80 79 85 83 80 76 71 70 77 89 89 86 86 87 84 82 82 84 89 96 96 95 86 86 82 71 74 74

GFSCGP_sfc_rhum_051.txt.gz
RH
42 34 36 35 36 31 30 32 28 27 30 29 35 37 36 73 74 77 74 74 77 75 68 62 62 66 64 66 70 71 78 82 78 75 82 80 88 90 91 88 80 74 62 62
40 44 36 34 37 36 34 33 33 28 27 32 31 29 32 61 68 67 71 70 69 69 70 69 67 66 67 66 69 68 70 76 75 69 75 72 82 88 86 87 78 76 67 62
42 33 37 38 35 36 32 33 32 30 28 31 30 28 32 36 55 64 63 64 63 66 70 72 74 74 70 68 70 67 66 72 75 71 70 76 81 85 87 86 82 74 68 66
40 36 38 40 38 33 36 30 31 31 30 31 28 32 30 30 39 52 60 62 66 65 69 66 70 75 75 72 67 66 70 74 74 76 71 75 76 80 83 85 78 68 69 74
38 41 42 41 38 34 34 31 32 32 34 35 33 30 27 30 30 34 45 55 56 56 60 64 67 65 67 72 79 75 75 75 76 77 74 80 80 78 85 86 79 73 76 77
34 35 35 33 32 33 32 34 38 42 40 46 35 31 30 25 25 25 25 36 50 53 56 57 58 62 64 75 79 80 76 75 75 78 79 82 81 83 83 82 80 74 71 68
37 36 35 35 35 33 32 36 46 50 52 50 43 43 34 28 27 27 31 28 38 52 52 55 59 63 62 74 79 79 74 74 79 81 83 82 82 81 85 81 80 80 74 67
36 37 36 37 34 35 38 36 53 47 51 41 42 41 23 28 27 37 39 36 33 50 53 52 54 58 61 68 73 74 73 72 76 80 83 84 80 82 81 85 83 77 76 70
50 39 33 38 35 30 39 42 37 57 67 62 40 34 24 27 29 38 39 36 35 42 47 49 51 58 61 65 73 76 73 72 78 81 82 83 83 85 85 86 88 87 82 68
41 40 41 37 35 37 36 35 46 51 54 53 39 40 26 27 30 32 38 39 38 44 50 49 54 59 61 63 70 76 72 71 74 77 79 79 82 83 85 89 90 85 77 75
40 37 40 40 40 36 41 41 45 40 47 47 51 37 34 26 29 32 36 40 42 48 52 56 56 59 62 66 70 73 71 68 72 74 80 87 89 88 89 92 89 85 80 74
41 48 53 39 35 33 36 41 42 57 47 58 58 43 27 30 27 31 34 37 42 53 56 60 62 68 71 70 70 69 70 73 76 81 88 91 91 92 94 93 89 82 76 73
46 46 45 36 36 40 40 40 41 49 56 57 73 43 26 29 28 26 29 32 43 53 59 62 68 71 75 77 78 79 80 79 79 82 83 89 89 86 88 85 80 73 73 75
44 49 44 40 35 39 51 44 44 45 61 53 50 39 30 28 29 26 28 29 29 43 57 61 64 68 73 75 77 80 85 88 84 81 82 86 86 82 79 77 73 72 69 66
46 47 48 38 32 38 39 39 47 42 44 51 41 42 32 31 29 28 33 43 47 58 61 62 61 66 71 76 79 80 82 82 82 83 80 82 78 72 69 68 76 79 76 65
50 49 52 48 42 39 42 39 42 43 40 42 38 40 31 30 32 38 46 54 58 66 68 72 71 66 75 78 78 81 78 77 74 75 78 71 72 66 72 70 65 60 79 65
55 62 59 52 48 45 64 49 44 43 41 40 47 40 35 35 39 44 51 57 62 68 71 75 77 78 79 79 79 78 74 69 67 65 64 64 64 65 67 70 76 74 85 88
62 61 65 73 68 72 40 39 36 41 39 36 36 33 33 37 55 57 59 55 62 66 69 70 70 71 70 68 68 66 61 63 62 61 62 65 72 78 77 80 91 94 93 93
55 68 74 80 63 50 37 37 40 41 30 34 35 35 47 56 54 61 64 63 66 68 66 66 64 65 64 63 62 61 59 56 58 70 73 75 79 82 88 92 93 92 80 74
65 66 71 73 71 70 51 36 36 31 44 37 38 50 58 56 55 50 64 65 68 63 61 64 64 62 62 60 56 58 59 62 68 73 78 83 79 78 82 80 67 64 62 60
78 78 74 78 81 62 46 37 38 49 44 44 44 51 56 52 52 63 66 65 60 60 62 62 60 62 62 60 62 67 71 81 73 62 60 62 61 60 59 60 60 60 58 62
71 77 85 78 89 68 46 39 46 46 46 49 52 57 62 73 74 69 65 64 61 60 59 58 64 67 67 63 60 59 60 56 53 54 58 62 63 59 58 63 63 61 62 68
75 65 69 60 63 55 47 44 43 46 46 55 55 60 69 74 70 67 67 64 60 56 57 57 59 62 59 55 52 56 60 56 62 65 66 62 58 54 51 49 51 48 49 57
68 67 67 63 54 53 56 56 60 53 51 53 52 59 65 69 69 66 62 61 59 56 56 55 58 63 70 67 68 70 70 62 61 61 59 53 50 48 46 44 46 48 58 63
68 68 68 66 61 71 64 66 59 63 69 65 60 62 65 68 66 62 62 61 59 57 57 57 65 72 77 68 67 60 56 54 54 55 51 50 52 52 48 48 53 58 58 69
65 64 72 70 51 56 47 56 68 72 68 65 69 73 67 63 64 61 63 63 61 63 62 68 72 72 69 69 66 60 55 49 48 47 48 62 60 60 55 51 50 62 66 65

GFSCGP_sfc_rhum_054.txt.gz
RH
25 22 22 17 21 20 20 20 17 18 21 22 21 19 18 35 46 41 44 53 64 52 50 47 50 49 48 48 51 51 56 58 58 56 53 51 51 51 55 56 64 70 61 68
28 25 20 22 25 27 24 21 19 20 21 23 18 17 20 28 40 42 38 42 45 49 50 48 48 46 48 49 52 50 48 54 54 49 48 45 43 46 52 64 78 75 68 60
23 22 25 26 25 28 26 23 21 20 19 18 20 17 20 24 33 36 38 34 35 40 47 49 45 49 51 49 53 52 51 51 54 52 48 46 48 53 63 74 75 81 75 61
22 20 26 26 26 23 24 20 22 22 22 22 19 24 17 19 26 33 36 40 37 34 38 45 48 47 48 48 46 44 44 46 51 55 49 50 46 49 54 68 82 79 72 67
25 26 29 29 25 24 23 24 24 23 23 25 22 21 16 19 18 20 27 32 36 36 35 39 45 46 46 47 48 47 45 45 49 53 58 54 52 43 47 76 77 76 75 64
19 23 24 21 23 24 24 26 27 28 25 34 22 22 18 15 16 16 16 21 29 32 35 33 36 42 44 48 52 53 50 48 50 56 62 63 60 56 57 67 71 70 66 66
23 23 21 24 24 26 25 28 37 42 40 40 27 26 19 15 16 18 19 19 18 27 34 36 35 38 43 48 56 59 56 51 52 57 60 64 66 68 66 65 70 72 70 75
27 29 23 23 22 24 26 26 37 45 44 33 29 28 16 18 18 18 22 24 23 21 27 31 34 36 40 46 55 59 56 54 53 58 62 65 70 69 66 66 70 72 77 90
26 22 21 24 24 22 30 32 24 37 50 47 24 20 15 17 18 20 21 25 22 22 25 27 28 33 37 42 53 58 54 50 50 65 65 72 76 76 75 73 75 76 81 89
24 27 26 29 27 28 26 22 35 33 46 42 25 24 15 18 16 17 17 19 24 26 26 28 29 33 37 40 46 55 56 53 52 58 65 70 74 74 73 81 82 83 91 87
20 24 36 33 32 26 31 31 30 27 32 39 36 24 17 17 16 18 22 23 24 29 30 32 32 33 37 41 44 50 52 49 50 52 60 67 67 69 75 88 88 88 87 82
22 26 32 26 26 25 22 26 28 41 40 39 44 30 15 17 18 20 21 22 26 31 34 35 38 40 41 44 44 47 49 49 48 53 58 66 76 81 90 93 90 89 84 82
27 29 35 30 29 28 26 24 24 28 35 33 58 31 18 19 20 18 19 21 25 33 34 36 40 42 44 46 48 48 53 54 53 56 65 82 88 91 93 92 89 84 78 74
35 24 28 33 23 19 30 26 24 29 40 31 32 23 18 18 18 17 19 20 20 28 37 36 41 43 48 51 54 56 70 76 73 74 80 87 89 88 86 83 81 78 78 77
29 30 27 20 17 16 17 18 22 25 26 30 26 21 20 17 17 18 21 24 26 28 36 42 42 46 50 57 62 63 71 76 77 79 82 83 77 71 70 70 66 69 71 69
31 31 31 31 22 21 22 19 18 21 20 24 24 24 19 18 19 22 25 30 34 42 46 47 47 51 58 60 61 65 66 67 68 74 72 68 65 63 64 62 63 68 64 62
41 35 38 37 30 30 54 35 24 22 25 26 28 23 18 21 22 23 30 35 42 48 51 53 55 56 57 60 61 62 60 58 59 60 60 58 56 59 59 58 60 66 67 78
46 44 43 49 69 83 25 24 21 23 22 21 22 20 18 19 24 32 35 40 47 50 53 54 54 56 56 54 54 54 51 52 53 53 53 54 57 58 62 71 80 84 90 86
42 45 56 81 50 31 30 30 30 31 25 19 21 19 18 30 36 43 43 40 46 49 49 50 50 52 52 51 50 49 48 49 51 54 56 57 61 65 69 67 70 73 64 56
48 51 57 61 59 82 30 21 22 24 36 18 19 22 24 34 42 26 45 48 50 47 48 50 50 49 50 49 46 48 50 52 56 60 60 57 58 64 63 57 53 50 45 43
69 67 76 62 71 42 27 24 25 40 36 23 21 23 33 38 29 40 46 49 44 46 49 49 47 48 48 46 48 52 55 62 56 51 51 51 49 48 46 45 44 44 43 48
59 67 83 62 89 77 31 29 31 27 31 27 31 30 39 39 49 48 47 47 47 47 48 47 51 52 50 48 51 51 50 46 46 46 45 44 44 40 40 45 44 40 40 44
62 48 52 47 43 33 34 26 26 29 25 33 32 32 37 51 49 48 48 48 46 44 45 46 50 51 46 43 42 44 45 43 45 45 45 45 41 36 32 32 34 30 34 42
50 53 61 54 32 34 34 26 31 29 29 29 29 35 45 47 48 49 48 47 45 42 43 43 48 49 50 44 43 45 44 42 43 44 41 36 33 30 30 27 28 32 44 48
37 52 49 48 40 39 40 35 30 36 39 38 33 39 41 45 47 47 47 46 43 42 45 44 49 52 51 48 48 44 41 39 36 35 32 33 36 33 31 30 37 44 48 60
42 44 63 56 37 46 29 32 35 38 43 40 40 45 42 42 46 45 46 44 44 47 46 49 50 50 48 48 48 42 35 31 31 30 33 47 44 44 34 30 33 67 62 62

GFSCGP_sfc_rhum_057.txt.gz
RH
19 19 19 14 14 14 15 15 14 27 31 20 18 15 16 21 26 28 34 38 40 45 41 46 44 40 37 42 47 49 55 54 44 45 47 47 46 44 43 42 51 67 66 59
19 24 15 15 17 17 16 16 15 13 14 17 16 17 19 17 26 26 30 40 42 37 42 42 43 43 43 43 44 44 43 42 41 36 38 38 40 39 45 46 52 65 67 58
22 17 16 19 18 20 19 19 16 16 16 15 16 16 19 14 22 24 25 28 32 41 42 43 44 44 44 44 44 40 41 41 42 40 36 36 36 37 38 42 49 69 73 79
19 14 19 19 20 18 22 15 16 18 18 19 21 24 24 15 19 24 25 25 28 30 36 40 42 41 43 44 44 43 41 40 40 42 40 42 39 39 39 46 48 69 85 90
20 17 21 22 20 17 19 19 18 18 18 20 20 18 20 13 13 16 21 23 24 26 30 35 37 37 38 41 44 46 44 41 39 40 44 43 46 40 37 43 52 72 80 80
16 13 16 16 17 19 16 21 21 21 22 30 19 22 23 23 13 13 13 19 22 24 24 28 31 34 35 38 45 47 44 40 38 41 46 52 51 50 42 42 71 76 75 76
19 19 16 17 20 20 20 23 36 47 36 35 19 20 18 22 12 12 14 13 17 21 25 25 28 33 36 39 44 45 42 41 40 45 46 50 53 56 56 63 64 67 72 71
23 25 18 17 18 20 24 22 37 53 49 34 24 24 16 13 12 12 12 15 17 17 22 25 25 29 33 39 44 46 43 44 41 46 51 57 56 60 62 59 58 64 67 78
22 21 13 14 15 15 20 28 20 32 35 43 22 16 14 12 14 13 14 16 17 18 17 21 24 26 30 35 43 50 47 45 44 49 55 75 74 66 69 70 73 73 75 75
17 24 15 16 16 17 20 20 31 29 52 50 22 19 18 16 14 13 13 14 19 19 18 20 21 26 27 31 39 46 50 48 49 54 58 62 69 75 75 78 82 80 82 78
16 21 24 23 25 22 24 27 25 23 28 50 40 21 16 14 13 13 14 14 16 20 22 22 22 22 24 28 34 43 46 45 47 48 59 72 79 74 74 86 86 85 82 82
19 23 31 27 16 15 20 24 24 37 37 34 37 33 14 14 13 14 14 14 17 20 22 25 26 26 28 32 34 38 44 45 43 45 56 71 77 85 87 90 92 92 90 86
21 24 34 27 23 20 22 22 22 25 27 44 72 33 14 13 14 13 14 14 17 20 23 27 32 33 33 35 37 39 42 42 41 44 79 82 87 91 93 93 91 88 87 87
31 23 28 33 24 20 25 21 19 23 42 34 28 22 17 14 15 14 15 15 15 21 22 21 26 32 36 40 42 46 55 56 55 68 74 88 91 91 90 87 84 83 80 81
27 29 24 19 16 15 16 19 18 20 21 30 24 20 16 15 14 13 14 16 16 16 21 23 25 32 39 46 50 66 73 74 74 80 83 88 84 79 78 77 77 80 78 76
25 33 26 25 18 16 18 14 13 14 15 16 16 18 13 12 12 16 17 17 19 18 21 27 30 38 47 52 54 63 70 72 74 77 73 70 66 63 65 66 68 67 67 67
31 34 33 41 22 21 38 22 16 15 15 16 22 18 14 14 14 16 16 20 22 28 31 35 38 46 51 54 57 60 61 62 62 61 59 56 56 58 59 55 55 57 63 65
41 37 38 53 65 71 26 16 16 19 16 14 14 14 14 13 12 16 18 21 30 35 40 44 46 49 49 48 49 52 49 51 53 52 51 52 54 54 56 58 62 67 68 71
36 46 56 68 50 30 20 22 22 21 19 14 16 15 14 14 23 29 27 27 35 39 41 42 42 44 45 45 44 45 46 47 48 50 51 53 58 61 60 62 64 65 68 64
37 42 62 59 57 64 30 19 16 17 34 16 15 16 16 21 36 21 31 34 38 38 38 41 42 41 43 43 42 44 46 47 50 52 54 54 54 56 57 58 54 48 43 39
72 67 79 68 61 38 20 17 16 40 37 17 15 16 18 23 23 30 34 39 36 36 38 41 40 42 42 40 42 45 48 54 52 50 51 51 48 47 46 44 40 38 38 42
69 67 85 67 73 74 27 23 30 27 24 19 20 19 24 25 37 38 38 37 37 39 41 38 42 43 43 41 44 49 50 45 44 45 44 43 40 34 34 39 38 34 34 41
53 46 56 43 43 30 30 29 23 21 21 23 23 20 23 36 38 39 38 38 39 39 37 38 42 46 46 43 42 44 44 42 44 43 42 38 34 29 27 28 31 27 31 40
36 34 46 42 33 29 27 27 27 23 23 21 22 22 26 39 38 39 38 39 39 36 38 39 45 45 45 40 38 41 41 39 39 39 36 32 29 28 24 22 24 30 43 46
35 35 39 36 26 26 26 31 33 26 25 25 24 24 28 35 37 38 39 39 36 36 38 41 42 43 42 40 41 38 36 35 32 32 28 30 30 28 28 28 33 42 55 58
23 28 46 47 26 42 36 29 30 28 27 30 28 28 31 32 36 37 39 38 36 38 40 41 44 46 44 42 39 36 33 29 29 30 32 44 44 40 28 26 42 65 62 62

GFSCGP_sfc_rhum_060.txt.gz
RH
19 22 24 19 17 15 15 16 16 23 19 21 24 17 22 26 60 28 36 35 42 49 44 42 52 54 52 63 66 64 69 72 67 66 68 70 68 65 67 64 64 78 77 78
22 28 18 14 14 17 18 14 14 14 18 22 17 15 15 37 50 26 28 37 40 41 47 47 44 47 52 60 60 59 61 63 62 61 59 60 57 59 61 60 64 77 82 80
26 19 16 15 17 19 18 18 16 17 23 17 17 17 15 17 20 20 26 36 32 41 48 52 47 50 52 56 56 55 57 59 60 55 50 51 54 57 56 60 64 77 85 89
20 16 17 18 20 16 23 15 15 15 21 21 18 28 24 19 19 22 24 32 39 41 44 49 49 50 51 54 54 53 54 53 52 51 46 52 50 51 53 59 59 71 84 86
23 18 18 21 18 16 20 17 20 19 19 21 19 30 27 19 21 20 25 25 37 40 41 46 48 48 48 50 54 52 50 47 48 49 54 61 56 54 58 62 66 83 90 88
18 13 14 15 17 15 16 18 21 21 22 35 22 25 22 23 25 18 22 23 27 33 39 40 44 45 45 47 53 54 52 49 48 49 55 62 64 63 58 60 69 81 89 88
19 18 13 14 18 18 20 24 38 60 51 46 18 19 26 32 28 19 18 18 23 30 32 38 41 42 44 48 53 55 53 51 50 53 56 58 64 71 64 67 80 88 89 91
27 32 17 16 20 21 23 24 41 51 81 54 38 29 18 20 20 14 12 15 19 24 30 31 34 38 40 46 51 52 50 51 49 52 55 66 66 68 77 87 79 84 85 89
29 26 14 16 16 17 22 31 22 34 55 68 40 32 16 14 13 13 13 15 18 19 22 28 28 36 39 42 51 56 51 49 48 50 56 71 78 76 72 78 76 87 89 91
23 31 20 14 14 16 18 15 35 32 60 57 28 21 33 18 16 13 14 18 22 23 21 22 26 32 37 41 48 54 54 49 50 52 61 67 73 78 77 86 88 94 92 93
21 27 26 16 19 20 20 24 29 28 33 53 58 40 44 22 15 15 18 17 21 26 26 25 26 29 32 38 43 52 53 50 51 52 66 73 77 80 93 92 94 93 94 92
22 28 34 24 16 16 18 24 26 43 39 42 54 39 20 21 17 17 17 15 21 23 24 27 28 28 31 34 39 48 52 53 52 58 68 81 92 91 95 97 98 94 94 93
24 30 39 29 24 20 22 22 26 27 30 42 80 45 16 16 15 15 18 17 20 24 24 28 32 32 33 37 42 50 54 53 69 78 84 93 94 95 97 97 95 92 93 94
38 30 33 42 40 24 27 22 23 33 58 43 49 38 24 17 18 15 17 17 17 22 24 29 34 36 38 41 45 50 63 79 75 80 88 94 96 95 94 93 92 93 90 90
34 40 32 25 20 19 21 21 20 20 34 56 37 24 19 17 18 18 19 19 19 18 22 25 32 40 43 50 70 72 77 78 80 86 89 93 91 90 89 87 86 86 86 84
30 39 34 38 22 20 25 21 17 17 18 18 19 21 14 14 14 14 18 18 18 17 18 23 29 38 45 66 72 77 80 80 79 85 86 84 84 80 83 82 82 81 79 78
39 40 42 50 29 26 39 25 19 17 17 18 24 20 15 15 14 17 16 18 19 21 24 27 32 44 55 66 74 76 78 76 76 75 72 72 71 74 75 70 71 74 79 82
46 42 43 65 69 61 29 20 17 19 17 14 14 13 13 13 14 18 18 20 24 28 32 35 48 61 59 62 67 70 67 68 69 65 63 63 65 64 64 66 72 76 78 84
41 51 90 75 60 39 27 22 23 24 22 16 16 14 12 13 22 28 24 28 32 37 41 45 50 54 56 58 59 59 60 57 57 59 60 58 63 67 66 72 77 79 76 79
53 54 72 86 74 70 43 25 17 20 38 19 17 20 19 20 42 28 30 32 38 39 42 46 49 50 52 52 51 53 54 56 57 58 60 62 63 64 67 69 71 70 67 54
83 88 89 80 89 57 27 23 21 42 43 25 20 21 23 29 29 35 33 38 37 39 42 45 46 48 48 47 49 52 54 57 55 57 58 60 58 60 60 61 58 54 55 66
77 88 94 82 93 87 31 25 32 35 34 30 26 27 37 40 40 37 38 40 39 39 41 42 46 48 46 45 48 51 57 54 53 56 54 52 52 45 44 54 54 49 58 66
55 51 70 67 59 42 44 37 35 37 37 34 34 26 30 44 40 39 41 41 39 39 42 41 44 48 48 45 49 54 54 50 52 52 50 46 42 40 40 47 47 48 55 67
39 41 53 55 41 43 45 39 37 35 38 28 26 25 31 43 40 41 41 40 41 40 41 40 46 50 52 49 47 49 48 48 50 49 46 42 40 36 35 30 36 55 70 79
37 38 46 48 38 39 34 31 37 42 35 32 28 32 30 38 39 40 40 41 40 40 40 43 50 53 52 48 47 45 45 46 43 43 38 40 42 40 38 45 52 72 71 80
28 31 50 59 38 47 42 30 29 33 29 31 32 35 30 37 39 38 40 40 40 42 44 48 50 50 46 46 46 45 43 39 41 38 43 66 65 57 40 46 51 70 68 68

GFSCGP_sfc_rhum_063.txt.gz
RH
27 33 34 31 28 25 24 22 24 32 30 37 40 40 60 65 76 73 74 63 70 72 70 71 75 76 83 82 83 85 86 82 77 78 75 72 78 82 80 79 69 80 81 79
32 34 25 22 21 23 23 25 24 25 27 29 30 32 42 62 65 58 56 66 68 66 72 73 73 74 79 80 80 81 79 80 73 71 66 68 71 76 71 74 74 84 81 86
35 28 22 23 23 24 24 25 26 25 27 24 34 32 46 46 42 45 43 48 53 59 64 74 69 71 76 79 78 74 73 73 66 63 64 69 71 73 75 72 70 86 86 86
32 24 25 23 25 22 28 21 22 23 30 39 28 43 29 36 39 40 43 48 53 61 55 61 62 68 74 72 70 66 68 70 66 62 64 68 69 66 66 74 73 88 89 90
31 30 28 28 23 22 25 25 29 30 34 36 30 46 38 28 29 33 48 46 52 57 57 53 56 57 60 62 62 62 64 62 60 64 66 66 63 61 61 63 73 83 92 92
26 20 22 23 18 21 21 26 28 32 37 50 33 41 42 34 28 26 33 46 47 54 58 54 49 52 56 56 57 59 62 59 58 61 63 63 58 64 66 65 71 83 91 90
28 25 20 18 22 24 26 34 57 71 72 66 37 45 31 31 27 28 33 52 59 51 52 58 55 53 53 58 58 58 59 60 57 58 56 58 65 60 65 72 76 93 96 97
40 44 24 20 21 28 30 33 65 64 84 70 42 56 31 29 25 26 21 30 51 47 46 53 54 54 53 54 58 58 56 56 54 55 55 55 61 74 75 78 86 85 92 94
39 35 20 18 20 22 32 38 30 50 68 79 58 37 33 30 28 23 18 19 38 43 45 48 52 52 53 52 55 60 55 53 53 55 60 66 69 75 79 77 89 93 94 96
35 42 24 21 18 23 24 24 48 53 75 82 53 49 52 38 22 19 21 29 29 31 38 44 47 51 49 50 53 56 57 56 55 55 61 62 77 74 78 95 97 97 99 98
25 36 40 24 28 26 33 30 35 42 51 71 72 58 48 41 31 19 26 23 30 32 30 36 38 44 44 45 50 58 58 56 56 57 58 63 76 83 96 94 97 96 98 96
26 38 42 34 23 19 23 27 33 65 57 61 71 58 31 33 28 22 19 22 28 30 31 33 41 41 42 43 45 53 58 58 61 60 66 85 96 98 98 99 99 97 97 97
27 31 51 45 30 26 25 27 29 35 50 61 78 64 31 29 26 24 22 26 28 30 37 38 39 41 48 47 48 52 69 86 91 95 94 98 99 99 99 99 98 97 96 96
33 38 36 47 44 36 37 29 27 36 68 61 64 51 35 34 30 25 20 23 30 29 38 42 44 45 53 78 89 87 87 85 87 97 98 98 98 98 97 97 95 95 94 95
34 34 33 36 28 30 31 32 28 30 38 57 52 49 40 35 26 24 23 24 27 29 37 44 49 55 89 91 90 92 95 96 94 96 97 98 96 94 93 93 93 91 90 89
41 50 37 40 33 31 32 29 33 29 27 43 45 47 27 26 22 21 23 24 22 24 30 40 48 60 82 88 92 91 94 96 92 94 96 92 93 91 90 89 89 88 87 86
72 58 58 54 38 37 53 39 31 30 28 30 46 36 26 22 20 22 25 26 26 23 24 39 51 72 83 88 88 92 90 89 91 91 88 85 85 86 86 82 81 84 87 90
85 57 68 80 64 66 41 27 27 30 25 22 20 21 20 19 21 25 24 28 28 32 36 67 65 85 85 86 89 87 80 78 79 80 79 80 81 80 79 78 86 93 92 93
82 77 90 78 66 50 37 30 33 34 33 23 22 21 20 20 35 39 32 34 43 46 59 83 80 81 84 84 81 79 78 72 73 74 77 76 76 77 80 83 81 84 86 92
88 78 89 96 88 73 54 36 31 29 44 28 32 28 29 30 47 41 39 50 56 60 67 70 73 75 80 79 75 78 78 75 74 72 72 74 73 76 78 80 78 82 89 85
98 95 99 98 99 86 49 32 34 52 52 32 32 34 34 37 42 40 54 57 56 60 64 66 66 71 71 68 68 70 69 71 68 71 72 74 73 72 72 82 80 76 73 71
83 93 99 99 98 96 50 42 42 45 42 36 35 37 44 47 50 48 54 54 55 60 63 62 66 67 63 60 62 66 69 68 68 71 72 72 70 65 64 66 69 68 72 77
86 74 83 72 83 62 60 54 49 49 46 48 45 38 50 59 53 53 57 58 56 59 63 61 64 67 64 60 59 67 68 66 70 69 69 66 58 56 55 57 62 66 72 78
50 51 68 70 59 53 49 57 59 58 57 47 36 44 49 54 52 57 59 58 56 58 60 61 64 67 70 66 62 65 65 62 63 64 58 57 53 52 49 51 58 66 78 81
55 53 62 71 53 52 48 43 56 53 54 47 41 38 43 57 55 52 57 57 53 56 58 60 65 70 72 66 65 59 59 59 55 54 49 47 51 53 61 70 67 75 84 85
45 45 77 87 64 57 47 38 47 56 49 44 50 46 40 53 53 54 57 58 57 57 61 64 70 72 65 61 62 62 57 52 52 50 50 72 67 62 55 65 66 66 73 74

GFSCGP_sfc_rhum_069.txt.gz
RH
37 41 43 34 36 32 35 40 42 32 26 41 46 44 43 64 77 76 78 95 98 96 94 93 97 89 84 87 90 90 91 88 80 82 86 81 77 73 79 78 80 84 83 86
42 41 32 29 33 35 38 40 39 32 27 40 44 44 43 66 69 66 68 80 94 95 98 94 98 98 92 91 87 86 82 80 72 72 71 69 62 73 79 77 76 84 85 89
43 37 29 29 32 33 37 40 39 36 30 40 43 40 39 56 63 67 64 71 88 92 96 95 96 96 96 90 88 92 84 83 79 80 70 70 69 70 72 75 78 83 87 89
42 30 34 35 33 33 37 33 31 33 40 46 36 48 37 48 64 69 62 75 84 87 85 92 95 97 93 96 95 95 93 92 85 85 82 76 66 59 58 68 69 75 88 90
43 41 38 39 34 31 35 34 35 37 41 47 44 47 38 49 56 57 58 60 72 80 83 88 91 92 95 94 96 95 91 89 83 86 82 82 80 73 72 76 79 83 90 92
33 33 35 34 31 32 30 36 39 48 47 59 44 46 48 43 40 43 48 51 61 74 76 79 81 83 91 92 92 93 90 86 83 82 83 80 78 76 77 87 83 80 90 91
34 36 33 31 35 35 37 42 62 67 63 55 41 51 43 35 31 30 35 48 52 63 74 79 84 85 86 91 90 90 89 87 82 80 78 77 73 76 78 77 82 73 74 92
40 50 33 31 32 36 40 40 66 62 73 58 55 67 48 37 34 32 30 37 45 62 70 74 78 78 80 85 84 84 84 83 79 78 76 73 69 72 79 87 84 88 82 82
48 42 32 27 28 29 40 48 34 53 77 81 63 49 37 32 34 33 48 50 53 58 65 69 72 72 74 80 82 81 78 78 75 76 74 73 74 74 75 84 86 85 90 89
44 55 37 30 31 31 33 34 51 65 71 76 63 63 55 39 35 27 41 64 59 54 63 61 67 70 67 70 75 79 73 70 69 69 70 69 73 79 83 84 93 94 93 95
31 48 48 41 41 38 41 37 46 50 67 72 81 65 50 44 41 31 30 50 60 57 62 63 60 60 63 63 70 74 72 66 62 62 67 71 76 78 84 82 89 96 98 97
39 48 48 38 31 31 30 37 42 63 58 76 78 54 38 42 40 40 34 30 42 52 56 57 62 60 61 63 67 70 73 71 70 63 65 73 75 78 80 84 95 96 95 96
57 62 58 49 41 33 36 36 36 49 59 58 72 59 39 40 39 39 36 30 30 42 60 56 53 64 62 59 61 65 72 75 73 70 68 71 75 76 78 88 91 94 94 93
72 67 74 66 49 39 45 33 33 38 62 55 52 45 37 37 38 34 37 35 32 31 42 53 61 59 62 62 62 65 74 74 75 75 77 76 79 83 86 94 96 96 97 99
81 90 76 70 57 41 35 34 33 34 39 50 39 50 39 37 35 34 34 38 32 32 41 49 51 58 59 64 64 64 68 78 77 77 78 79 84 85 93 96 98 99 99 98
81 90 94 86 54 42 40 32 36 38 37 38 40 49 43 37 39 39 37 34 31 31 36 46 54 82 87 81 75 70 74 81 79 83 85 91 98 98 97 98 99 98 98 98
86 91 97 95 76 69 72 48 34 30 39 40 49 44 36 40 38 38 34 35 32 30 30 48 55 78 86 91 92 84 87 88 87 89 97 98 98 98 99 98 98 98 98 98
94 92 95 98 87 97 63 40 33 36 31 36 39 38 36 36 34 32 37 34 34 31 31 38 53 81 92 98 95 98 96 94 96 97 97 98 98 98 97 97 97 98 98 98
82 92 99 98 88 73 50 46 45 44 39 34 36 32 28 29 38 32 32 36 33 32 28 32 44 80 97 98 94 94 96 96 96 97 97 95 95 96 95 96 97 96 97 98
86 84 89 99 97 89 44 48 35 40 56 37 28 34 39 38 49 44 31 41 39 40 62 85 95 96 97 98 96 97 98 98 98 95 93 91 90 91 93 94 94 93 92 94
98 99 98 98 96 87 65 49 52 82 67 50 45 45 35 40 42 35 43 46 59 76 87 94 95 94 95 96 96 98 97 98 92 90 88 88 87 88 88 90 91 91 94 88
93 96 97 98 100 89 65 70 91 71 68 69 60 61 63 59 53 52 51 55 75 86 95 94 95 97 97 93 93 96 96 88 86 84 84 86 86 85 86 92 91 90 92 93
85 80 87 86 79 61 56 73 71 77 73 68 65 62 62 57 54 58 64 69 75 89 94 95 96 98 95 92 90 94 93 87 88 86 86 86 85 87 85 85 85 91 93 90
63 66 76 84 59 59 48 52 59 61 60 57 58 59 63 64 62 59 61 69 72 85 91 91 93 95 94 89 87 87 85 86 89 89 86 83 79 78 79 76 77 87 92 90
62 60 60 57 49 55 55 54 51 51 52 53 54 50 50 58 55 66 63 68 71 79 82 84 88 89 88 84 87 86 86 83 84 79 72 72 74 74 78 78 76 81 83 82
92 92 97 84 81 91 51 51 50 55 53 51 56 56 52 55 54 58 57 67 71 77 83 84 87 86 86 84 85 83 76 71 73 74 73 79 76 73 70 72 78 84 86 85

GFSCGP_sfc_rhum_072.txt.gz
RH
46 52 52 46 41 33 35 40 44 40 32 37 33 42 36 50 80 79 82 93 99 99 94 97 96 83 91 94 91 94 97 96 95 94 86 96 96 97 95 84 74 72 73 75
44 50 37 37 37 36 38 40 42 36 30 34 36 41 36 56 64 72 68 85 94 97 99 98 94 81 89 87 91 91 89 88 87 87 80 92 94 89 87 86 84 85 80 79
44 41 32 32 39 38 41 38 44 38 37 38 47 47 38 38 65 70 66 70 78 93 98 95 94 86 87 88 90 88 84 82 77 78 79 84 84 88 86 83 81 86 87 90
43 30 38 37 35 33 39 36 35 37 44 51 46 59 39 32 42 65 67 75 78 91 92 96 91 88 87 94 94 83 80 80 79 83 76 70 68 74 65 66 78 76 89 90
46 43 38 45 37 32 33 36 38 39 48 53 49 53 43 45 39 36 52 66 74 86 91 96 96 90 85 94 90 97 94 89 87 84 77 78 75 64 67 69 67 72 84 86
37 38 37 32 30 33 35 44 45 53 55 68 49 49 52 42 37 33 44 52 65 79 89 91 93 94 91 94 98 97 96 92 88 87 86 81 80 81 79 79 82 87 90 91
39 37 35 33 41 41 40 47 66 70 72 68 46 54 40 35 31 33 34 38 55 66 86 93 97 97 98 97 96 93 96 93 88 90 87 84 81 80 78 76 83 83 87 94
41 47 35 34 35 40 46 49 71 64 75 58 57 62 47 40 36 38 34 32 46 65 78 87 89 91 94 95 96 95 94 90 87 86 85 83 82 80 80 86 84 90 85 89
49 44 28 32 32 29 44 54 41 54 78 80 59 51 36 34 33 34 37 42 46 67 82 79 83 85 87 89 90 92 91 88 85 85 83 83 85 84 82 89 93 93 94 91
45 53 39 33 32 38 38 39 55 69 68 72 63 66 50 39 34 38 32 54 58 65 77 78 80 81 80 83 84 88 85 86 83 83 82 81 83 84 82 88 88 91 91 93
41 50 49 39 43 42 44 45 50 53 67 66 68 63 52 38 41 40 36 32 63 67 68 72 73 76 76 78 86 87 85 82 82 80 81 80 83 82 83 83 86 92 92 92
54 53 54 37 34 33 40 42 43 58 58 79 72 48 38 41 42 43 38 38 36 66 67 73 73 77 77 76 82 85 85 81 80 78 80 81 80 79 82 82 81 83 90 92
69 76 74 57 43 38 42 39 41 54 60 51 72 56 40 39 36 40 43 38 35 43 57 70 76 74 73 73 74 77 82 81 76 75 76 79 79 77 76 78 80 86 87 90
68 71 73 85 76 70 66 46 36 40 62 59 50 45 39 37 40 34 34 39 36 34 39 64 71 75 71 70 71 74 79 78 76 75 74 76 78 75 77 84 88 90 91 93
66 84 86 80 71 66 67 61 48 42 40 49 49 41 39 35 32 30 33 38 38 35 34 46 65 64 73 74 71 70 76 78 77 76 75 75 75 73 82 92 92 92 92 92
83 80 93 89 73 65 68 61 48 44 42 40 42 42 34 33 35 37 35 35 38 35 33 37 49 60 70 74 75 73 77 80 78 79 79 76 78 78 84 92 92 93 96 97
82 91 96 88 80 69 74 66 55 48 41 42 48 44 36 39 42 41 39 40 40 38 34 36 40 49 59 64 76 78 76 83 83 82 80 82 83 85 90 94 98 98 98 99
82 90 96 96 88 94 53 57 41 56 48 39 36 40 34 35 35 38 39 38 39 39 36 35 37 52 72 90 92 90 89 88 89 88 87 86 92 96 99 99 99 99 99 99
79 92 99 98 94 70 53 36 49 52 50 38 47 38 34 32 39 34 34 41 40 40 39 38 36 47 78 93 98 97 96 94 92 90 95 96 97 98 98 99 99 98 98 98
83 84 92 99 100 93 53 42 45 48 52 49 58 52 42 37 50 47 32 38 39 43 43 41 55 91 93 97 96 98 98 97 97 98 97 97 97 98 98 98 98 97 96 98
98 99 95 99 97 84 66 65 59 83 61 81 70 67 66 48 43 43 53 50 52 68 71 86 92 92 94 93 92 97 97 98 96 96 95 96 95 96 94 96 96 96 95 94
92 96 97 95 98 94 60 75 79 78 74 74 68 75 72 70 64 59 59 64 67 79 91 95 96 98 98 93 94 97 98 96 93 93 94 95 94 92 91 96 97 94 94 95
87 80 90 86 83 66 66 63 64 73 53 63 68 67 72 67 66 66 66 69 80 89 96 97 98 98 98 97 96 95 97 92 91 91 94 95 94 94 92 95 97 96 94 94
68 72 86 80 54 58 51 58 60 68 67 58 56 65 60 62 63 65 69 69 75 83 91 95 97 99 99 96 96 94 95 90 90 93 94 93 95 93 91 92 93 94 94 92
62 68 70 65 56 71 55 56 60 60 60 64 63 60 59 59 56 59 70 74 72 77 89 93 96 97 96 95 95 94 94 92 92 88 84 88 86 85 88 89 89 92 90 86
93 83 90 83 97 92 91 83 81 81 70 61 64 61 59 68 64 58 51 71 74 84 89 93 92 91 93 95 95 93 87 84 85 87 84 89 90 87 84 86 91 91 89 88

GFSCGP_sfc_rhum_075.txt.gz
RH
46 41 48 40 34 25 26 29 25 26 26 26 23 23 22 24 49 49 54 60 73 77 74 77 80 76 80 85 90 94 97 96 95 96 93 97 98 98 97 90 77 72 67 70
42 49 39 36 35 32 30 31 29 26 26 28 24 24 21 26 31 34 38 52 62 80 85 85 85 79 80 85 85 92 93 91 85 86 72 89 95 96 95 92 83 78 73 74
39 37 35 36 38 37 35 34 31 26 28 26 30 26 26 23 36 42 46 45 48 66 84 88 91 80 80 80 83 82 90 88 84 82 85 92 93 96 97 93 90 80 76 73
36 29 37 34 34 35 41 31 30 30 30 25 32 33 30 24 23 30 30 50 50 59 71 82 86 84 78 76 81 77 83 84 82 82 82 89 91 94 91 88 85 81 78 76
40 40 38 40 34 30 30 32 31 29 31 34 28 34 31 30 25 22 22 33 52 56 66 79 83 81 75 74 82 76 77 78 75 76 70 80 86 85 89 89 88 82 78 73
34 32 31 28 31 28 29 33 36 42 41 52 37 35 32 28 26 23 24 27 43 58 63 68 72 76 78 76 80 80 75 75 73 74 70 70 76 72 72 74 76 72 76 82
38 33 32 31 34 34 31 38 46 58 59 49 38 41 33 26 25 25 24 22 27 53 64 69 76 81 82 83 83 84 79 76 75 73 72 70 71 67 63 63 64 65 65 70
35 45 32 32 35 39 41 39 50 46 58 44 42 43 30 27 28 28 28 28 29 46 62 68 70 75 79 84 83 84 83 76 74 74 71 70 68 64 63 64 62 68 64 66
37 32 27 32 31 31 44 48 36 47 58 59 42 38 28 24 25 25 27 27 30 36 54 63 68 71 74 78 81 84 80 73 73 73 71 72 73 71 67 68 70 70 70 71
39 43 33 29 29 30 34 34 48 51 53 51 44 46 32 30 24 27 28 28 26 43 53 61 66 71 70 71 75 78 74 72 72 72 71 70 71 72 71 72 74 74 72 70
36 42 41 38 35 35 38 40 43 40 50 46 47 43 42 34 28 31 34 31 29 36 51 59 63 65 67 68 72 76 74 71 70 70 72 73 74 74 74 75 75 73 73 71
58 50 49 35 32 30 33 38 40 53 50 63 57 40 30 36 32 36 33 32 32 30 42 52 60 65 67 69 69 73 74 72 76 75 75 79 77 75 78 76 74 73 71 71
53 65 58 47 39 41 44 37 36 47 50 50 65 42 30 36 34 29 34 29 30 30 33 52 58 64 64 66 69 69 76 76 72 72 77 79 79 77 75 72 70 68 70 72
63 68 88 68 73 67 73 60 55 48 58 47 47 39 32 28 34 26 28 30 28 29 27 36 54 58 61 63 68 70 75 75 73 73 75 78 78 77 75 72 72 74 72 74
56 63 60 66 47 50 57 61 56 58 52 53 42 35 32 29 28 27 27 28 28 30 31 29 38 51 58 63 64 66 71 74 72 72 72 75 75 74 71 72 72 72 73 72
56 76 77 78 54 45 60 56 42 51 49 43 39 39 28 25 26 32 29 28 27 29 29 28 31 40 55 64 63 65 68 72 71 71 72 69 70 70 74 74 76 74 76 74
62 85 88 77 69 68 66 48 48 40 41 43 49 39 30 29 31 36 33 31 31 30 31 31 30 35 45 55 65 66 64 68 71 70 68 67 67 68 71 69 71 76 80 84
64 68 94 90 87 83 40 41 45 47 43 37 38 34 35 31 29 26 30 32 34 33 33 34 32 36 36 44 56 60 60 68 71 69 67 67 69 69 67 72 76 84 90 94
63 69 99 94 85 58 38 30 37 48 39 60 52 56 51 46 38 33 31 35 35 35 35 36 33 32 35 44 51 64 66 67 71 72 72 69 71 73 87 91 96 98 98 99
74 75 98 98 90 83 45 40 51 40 58 60 62 65 65 47 59 45 43 50 44 37 37 37 37 36 40 56 66 63 65 70 73 74 74 75 82 97 98 98 98 98 98 99
87 99 96 89 92 71 56 48 56 61 53 54 55 54 61 58 52 50 53 53 55 57 68 71 64 59 63 74 74 75 78 80 75 87 92 93 91 96 96 98 98 98 97 97
76 78 84 85 89 83 50 58 58 50 59 57 44 47 60 60 60 51 50 54 56 66 78 80 80 88 85 80 78 83 89 92 89 90 94 96 96 97 97 97 96 94 95 97
78 75 76 72 66 55 56 53 45 55 57 53 51 45 44 57 56 56 51 53 52 59 75 83 89 92 90 87 83 93 96 91 93 95 97 97 96 95 94 95 97 97 94 96
65 63 72 72 52 53 47 47 66 71 75 69 63 57 52 60 61 58 55 55 52 58 70 80 88 90 96 92 87 90 89 90 93 97 96 95 96 97 94 93 93 94 96 95
52 60 63 65 52 65 47 71 77 77 72 71 67 62 62 64 58 54 58 58 62 68 77 80 85 92 93 89 92 89 89 89 92 91 90 92 90 90 93 95 95 96 97 92
68 65 75 61 85 88 80 74 78 78 80 72 68 67 66 71 75 74 76 75 74 78 80 80 87 88 88 88 89 88 84 82 86 90 89 92 92 92 90 91 96 96 93 93

GFSCGP_sfc_rhum_078.txt.gz
RH
27 28 31 24 22 18 16 18 17 13 13 18 16 14 11 10 15 20 22 26 31 36 39 52 55 56 57 64 66 80 96 94 92 93 88 98 97 94 92 74 55 52 48 48
32 34 21 21 22 24 21 20 18 14 16 18 14 12 10 11 13 15 15 23 28 34 41 58 62 60 63 67 72 84 88 91 82 71 66 89 92 93 89 82 64 65 63 68
30 22 22 26 30 28 24 23 21 19 16 16 16 16 11 10 14 16 19 20 23 32 43 55 68 64 62 68 69 78 84 88 84 78 70 89 96 96 94 89 80 70 67 62
24 18 25 31 29 24 25 18 21 22 22 22 18 19 12 14 14 13 15 21 25 27 37 46 60 59 61 60 67 74 80 84 82 78 76 78 83 93 86 84 77 73 69 68
29 25 22 29 29 22 24 18 22 21 22 23 20 20 14 16 18 15 14 14 22 26 34 43 53 53 54 55 73 77 74 80 80 77 70 70 79 78 84 90 86 76 73 67
32 22 23 22 25 24 21 25 25 26 26 36 25 19 18 14 16 15 13 13 19 27 31 37 45 49 51 53 67 68 70 74 73 77 76 76 81 89 91 89 86 79 75 76
29 31 25 25 24 24 23 28 36 45 44 38 22 23 20 17 15 15 16 14 17 25 32 37 44 48 51 56 59 66 64 70 72 74 74 72 77 87 86 79 75 77 74 70
29 38 31 27 26 30 30 29 35 40 40 32 27 29 20 17 16 17 17 16 18 23 32 36 41 46 50 57 60 69 58 59 63 67 71 70 71 71 70 67 58 62 67 64
22 23 20 21 25 25 38 40 27 32 36 42 25 25 19 16 14 14 17 17 17 20 28 34 38 43 48 54 62 67 59 52 55 62 62 63 65 66 61 64 63 60 60 54
32 28 19 22 21 22 26 22 41 38 53 48 27 26 22 21 17 16 18 20 18 22 25 31 36 43 46 50 58 63 59 53 52 56 59 57 59 60 58 60 63 63 61 57
26 39 39 29 31 28 30 32 30 27 33 41 39 26 21 20 17 18 19 19 20 23 31 33 36 39 43 47 52 59 57 52 50 53 57 58 58 60 61 62 63 61 61 57
37 36 36 33 26 22 26 30 29 38 37 36 36 30 17 21 24 23 22 20 18 20 25 32 36 40 43 46 48 54 56 52 53 53 57 62 61 57 64 66 65 66 62 58
40 40 37 30 24 25 27 27 27 30 32 38 56 33 18 18 23 23 18 16 15 17 20 28 35 40 42 44 48 50 57 57 53 52 58 63 66 62 60 60 60 58 57 55
50 66 64 41 47 47 54 48 42 44 49 39 35 29 24 22 21 19 18 16 15 16 16 20 30 37 40 42 45 48 53 58 56 54 56 62 64 64 61 58 57 58 55 54
47 47 57 51 47 40 43 43 40 42 44 55 38 32 25 21 20 19 19 19 18 16 16 17 22 30 36 42 44 46 50 56 56 56 55 58 60 58 58 60 59 58 58 54
44 40 38 39 34 29 33 30 31 32 30 33 36 35 24 23 20 21 21 22 20 18 17 17 17 18 29 37 42 46 49 54 56 58 58 55 56 57 58 58 61 60 61 58
51 61 54 49 40 36 51 38 30 26 30 33 36 24 25 24 21 22 21 20 20 24 20 20 20 21 22 26 37 42 46 49 56 57 55 56 57 58 59 56 57 60 61 63
50 56 69 62 77 71 31 25 27 32 26 26 25 25 34 32 29 26 20 22 24 23 23 23 20 23 24 25 28 37 38 45 53 53 52 54 56 57 56 58 59 61 62 66
47 52 74 74 53 35 28 24 29 34 28 40 39 37 36 34 31 28 32 35 36 35 31 26 23 24 25 25 25 29 35 40 46 50 51 50 53 55 56 58 62 61 66 72
47 50 64 79 63 65 39 34 36 30 35 33 39 36 35 36 47 38 33 36 35 34 36 40 47 40 32 27 26 32 34 40 45 48 46 47 51 55 58 60 63 84 83 93
75 74 84 72 75 52 34 27 38 47 47 34 33 31 31 38 38 40 36 34 31 30 38 53 54 54 50 47 44 42 39 41 40 44 49 53 55 64 72 82 90 96 97 98
63 72 83 70 79 76 39 37 45 42 38 39 39 40 49 44 39 38 39 38 35 33 38 48 57 65 69 65 60 51 47 51 63 70 75 75 76 89 91 96 97 96 97 97
59 44 53 46 45 41 49 42 44 54 57 55 56 49 50 50 41 38 43 43 37 35 38 52 61 77 84 80 73 71 87 80 81 84 91 94 94 96 96 97 97 97 96 97
42 39 56 53 36 31 38 43 51 54 57 54 51 50 54 57 49 47 42 41 43 41 50 52 62 76 88 86 89 89 89 86 90 94 96 95 96 96 94 92 92 95 97 97
36 40 41 40 33 40 33 52 59 59 54 56 51 51 53 55 54 57 55 53 52 53 57 62 71 82 89 88 89 87 88 87 92 92 93 93 92 93 95 95 93 95 93 90
33 39 50 46 63 68 56 53 67 63 59 58 58 56 52 54 55 55 57 57 58 59 62 67 73 77 77 80 83 84 84 87 90 92 92 94 94 91 91 92 95 96 95 95

GFSCGP_sfc_rhum_081.txt.gz
RH
16 21 18 17 18 17 17 16 15 12 10 13 14 11 10 10 9 11 12 13 17 22 23 31 38 41 43 46 51 63 82 91 93 95 97 97 98 95 88 72 70 72 62 58
17 27 16 14 15 19 19 19 18 15 12 15 14 13 10 9 8 8 10 11 15 17 22 33 41 44 49 51 54 61 70 84 84 85 88 90 90 93 85 74 60 61 58 49
24 21 20 18 18 21 22 24 21 19 14 14 16 16 14 11 9 9 9 11 11 15 21 33 43 47 52 53 55 60 76 82 78 79 89 90 88 94 90 84 60 57 64 58
28 22 23 25 22 20 30 20 19 18 19 23 14 20 14 10 9 8 12 13 13 13 18 27 41 48 50 51 54 65 76 78 77 79 89 90 86 87 81 76 70 56 61 66
44 28 26 25 24 21 27 19 18 17 21 24 19 20 17 12 11 11 11 11 12 15 17 26 37 43 44 48 54 64 74 73 72 75 84 84 82 80 82 76 68 63 65 63
30 28 26 25 19 20 21 20 21 20 22 31 22 21 19 14 13 12 11 10 11 14 17 24 32 39 41 44 52 61 68 73 72 72 78 79 81 88 92 85 78 72 69 71
47 30 28 26 25 21 23 24 34 39 38 39 19 22 21 14 12 12 13 12 11 14 19 23 30 37 40 46 54 58 61 66 72 74 72 74 75 76 86 84 78 75 75 76
62 56 24 27 28 27 26 26 33 45 47 35 19 26 18 13 12 11 11 12 12 15 18 21 27 35 39 45 51 53 57 60 70 76 71 68 71 71 67 75 73 72 71 68
53 39 24 25 26 30 36 33 22 42 36 40 30 21 17 15 14 12 13 13 14 13 15 20 24 34 38 42 49 53 52 51 58 70 74 73 68 70 69 67 67 67 66 60
32 46 22 22 24 30 32 28 42 39 54 52 30 25 24 19 18 14 15 16 16 15 16 20 23 33 35 40 47 52 48 46 50 56 67 66 66 68 65 70 70 67 63 58
27 35 53 19 25 30 32 34 44 40 37 48 51 34 20 18 17 16 17 16 16 18 20 20 24 27 33 37 43 50 51 43 44 48 55 60 63 65 66 65 69 67 66 62
28 39 40 31 18 18 23 28 32 51 49 39 41 40 17 20 23 22 19 16 15 16 17 22 23 27 32 37 41 46 51 47 46 46 51 58 59 59 65 65 64 67 65 62
35 34 41 63 34 24 25 23 24 28 31 50 77 36 17 19 18 18 19 17 15 14 15 19 26 28 31 35 39 42 50 51 45 43 50 58 61 58 59 61 61 62 62 60
48 47 44 45 37 34 31 27 23 28 44 38 36 32 24 20 19 19 18 17 16 16 14 14 20 26 29 32 36 39 45 51 48 44 47 54 60 59 57 58 59 61 60 60
39 52 48 44 42 35 38 36 33 34 34 44 36 32 24 21 19 17 17 17 18 17 16 14 14 18 26 31 33 36 40 48 49 47 46 51 57 56 55 57 57 58 60 58
33 40 39 43 33 32 32 28 29 29 30 29 27 27 20 19 18 20 19 18 18 18 17 15 16 14 17 26 32 34 38 42 47 51 52 48 52 55 58 58 59 59 59 57
44 44 36 50 35 39 51 33 28 25 23 25 32 27 20 21 22 23 23 21 19 18 18 20 20 19 17 16 26 33 36 38 44 49 49 49 50 54 57 55 55 58 61 61
48 44 44 57 51 64 30 20 21 25 22 23 25 22 22 23 24 22 27 32 33 30 29 27 25 24 20 19 19 24 29 37 41 45 46 47 50 51 52 54 56 60 62 65
40 48 56 63 47 31 22 20 21 24 23 27 27 26 26 26 26 28 29 30 32 30 28 28 27 30 32 29 23 21 25 30 37 43 45 44 46 50 51 55 59 59 61 65
40 46 57 60 62 56 27 22 21 23 34 29 30 30 29 26 35 30 28 29 31 29 28 29 33 35 36 37 36 28 24 25 32 40 42 41 44 49 54 56 58 59 63 67
64 67 74 65 62 39 36 26 28 46 46 36 32 33 36 39 34 32 27 26 27 28 28 30 36 43 50 50 50 48 40 35 30 30 37 42 44 51 51 54 57 62 78 94
63 79 81 68 82 72 24 26 42 50 40 38 38 39 44 42 38 33 27 27 30 28 27 30 40 52 66 65 62 56 50 61 63 56 40 45 45 48 59 62 86 90 96 98
74 43 51 43 41 36 41 52 44 45 46 45 45 40 43 45 44 41 38 33 33 31 34 39 43 55 71 79 82 85 83 77 75 78 85 88 91 92 93 95 96 97 97 98
34 40 53 72 42 42 54 48 45 44 46 44 42 42 45 49 46 45 43 44 41 37 42 49 60 72 77 78 81 86 88 87 90 94 95 94 95 95 94 95 96 98 99 98
33 44 34 37 38 30 35 45 54 46 44 46 45 46 48 48 48 47 46 48 47 45 49 55 69 78 82 81 84 81 87 87 92 93 93 95 94 94 95 96 97 98 98 96
30 47 48 56 60 58 48 48 56 50 52 51 52 51 49 49 50 50 50 54 57 59 63 63 73 80 82 83 86 89 84 85 90 93 94 97 96 95 93 92 95 96 97 96

GFSCGP_sfc_rhum_084.txt.gz
RH
17 30 33 26 28 24 22 22 21 16 12 14 15 13 11 11 12 14 14 14 14 19 22 29 37 44 47 54 56 74 79 82 88 94 95 98 98 97 94 93 92 89 86 84
30 31 22 19 16 21 24 26 24 19 14 15 15 14 12 11 10 10 10 11 14 16 19 31 40 46 53 57 60 76 75 82 84 88 91 91 91 92 89 91 83 82 81 80
55 40 27 27 24 21 21 28 25 23 17 15 16 18 16 13 11 10 10 10 10 13 19 34 44 50 56 59 62 75 76 83 84 87 90 92 90 90 87 82 79 82 78 68
78 47 42 49 45 36 33 21 21 22 25 29 18 28 19 14 14 12 12 12 13 14 17 30 43 49 56 59 61 63 75 80 82 87 90 93 90 88 78 74 70 74 70 66
63 56 51 56 42 42 43 26 31 32 31 28 22 25 21 14 14 12 11 12 15 16 17 27 43 45 49 57 63 66 75 80 79 87 86 87 84 73 75 70 68 68 70 70
52 41 53 55 40 32 43 43 40 36 32 41 25 26 26 19 16 12 10 12 15 15 17 20 40 43 47 55 63 71 78 82 79 87 86 84 81 77 84 73 66 66 72 75
45 45 38 32 54 35 30 44 77 73 54 50 23 26 25 18 14 12 13 12 15 18 20 23 38 43 47 56 64 73 75 82 81 85 83 82 78 76 78 75 69 67 71 73
69 66 44 38 37 46 38 34 70 71 64 46 23 28 21 15 13 12 11 15 19 16 24 24 33 42 45 54 62 65 69 73 79 80 83 79 76 74 74 73 69 67 66 66
57 60 28 35 32 43 52 47 31 51 54 77 48 22 17 15 15 14 14 15 17 18 20 22 28 41 44 51 62 65 63 65 74 75 78 78 79 78 78 75 71 68 63 60
33 59 33 30 29 33 42 37 64 67 77 91 41 31 26 22 20 17 18 20 19 18 17 19 22 41 42 48 58 65 60 59 67 73 73 73 76 76 74 76 75 71 66 63
29 41 41 42 46 54 45 64 74 66 58 97 86 49 35 28 24 24 23 20 22 23 24 23 24 36 40 44 51 61 57 56 60 73 74 72 74 76 76 74 74 72 68 68
37 46 47 40 39 25 36 44 55 92 87 61 80 68 29 33 24 24 26 20 20 20 21 25 26 30 38 42 46 54 58 54 56 62 73 76 75 73 77 77 75 74 69 65
37 43 52 46 37 27 32 41 44 55 64 94 99 62 29 25 26 21 23 22 20 20 19 22 28 29 34 39 44 49 57 59 53 55 63 74 76 75 75 74 74 74 71 66
47 48 53 82 81 79 46 33 39 47 67 76 77 67 48 38 34 26 25 26 21 20 19 18 23 30 32 36 41 46 55 59 56 52 58 66 70 72 72 71 71 73 75 73
38 58 47 39 64 64 62 67 70 40 48 58 49 45 47 40 28 22 20 20 19 18 18 18 19 22 31 36 39 41 48 56 57 54 52 59 64 65 66 69 70 69 70 70
36 50 43 43 36 33 38 48 36 57 54 38 36 34 38 32 19 21 21 21 22 23 27 28 25 26 25 28 36 37 43 50 56 58 56 52 58 62 66 67 68 70 70 69
44 48 46 52 35 41 57 42 30 26 25 26 34 30 24 22 22 24 27 34 35 33 32 32 31 31 32 31 34 40 40 44 52 57 56 54 54 57 65 65 64 67 73 74
48 48 49 63 51 78 38 26 24 30 24 22 22 43 28 26 23 29 33 36 38 36 35 35 38 40 40 40 38 36 30 42 47 50 53 55 57 56 58 64 66 68 69 72
42 50 67 68 57 38 27 21 22 24 24 30 38 41 33 26 28 47 35 37 35 39 37 36 39 42 51 52 51 48 46 31 41 46 49 51 55 58 59 63 67 68 70 71
42 49 64 68 65 63 28 19 22 20 36 37 34 40 35 31 51 50 32 28 28 28 31 32 40 51 61 64 62 59 52 48 44 44 45 47 52 56 60 62 66 68 66 70
63 67 78 75 72 45 24 28 27 44 61 43 41 44 44 49 46 41 35 30 27 29 31 40 46 66 71 73 73 70 74 80 71 68 70 58 51 54 57 64 67 71 74 92
59 80 81 71 73 75 28 29 45 57 49 45 45 44 48 43 42 42 40 40 44 39 40 47 60 70 71 74 79 83 89 83 79 79 80 82 87 82 73 77 94 97 98 98
65 48 58 49 50 35 46 54 47 45 47 48 48 44 45 48 47 44 45 44 43 42 44 48 56 66 72 76 79 87 86 86 85 86 87 90 89 91 92 98 99 99 99 99
63 41 84 62 67 73 83 57 46 44 50 45 44 46 48 52 50 50 47 50 51 49 54 57 68 74 80 78 79 84 84 84 86 90 91 88 91 93 93 93 95 98 99 99
56 66 53 56 65 83 84 70 62 48 47 48 46 48 52 53 53 53 52 56 56 57 62 65 75 80 83 82 85 83 85 84 84 89 90 93 92 91 90 94 97 97 98 98
70 77 84 97 68 82 86 62 56 57 55 54 52 54 53 57 57 55 56 61 61 65 67 71 77 80 82 83 86 86 86 86 88 91 92 94 94 94 91 90 92 96 96 96

GFSCGP_sfc_rhum_087.txt.gz
RH
27 26 32 35 35 35 33 37 33 27 19 19 19 20 15 14 18 21 24 24 23 29 31 38 45 53 58 76 91 92 94 98 97 98 98 98 98 98 98 97 95 93 90 93
37 35 24 22 24 28 35 48 53 31 23 23 22 23 17 15 16 19 20 22 21 26 33 43 52 55 61 82 87 93 94 96 92 90 90 93 94 94 94 95 94 93 93 91
56 42 38 34 29 36 47 40 40 34 26 24 29 25 23 17 17 16 16 16 17 20 34 49 54 60 67 80 89 91 94 93 88 89 89 93 93 94 95 92 89 92 91 92
75 61 63 55 50 40 50 35 31 45 64 76 36 49 27 20 18 16 14 16 16 17 36 49 56 64 68 77 86 88 92 91 88 90 91 92 91 92 85 84 82 82 83 84
65 65 76 80 56 54 50 43 47 66 67 57 48 49 32 22 21 20 16 14 18 19 45 51 57 60 66 71 84 88 90 86 86 90 87 87 87 80 80 80 83 83 82 74
56 44 55 69 60 56 55 78 70 64 69 93 66 55 39 25 21 19 17 16 16 21 44 50 53 61 68 70 81 86 89 86 87 88 87 85 83 80 87 77 82 80 75 78
50 46 46 44 61 56 79 87 99 99 98 89 44 52 41 25 19 18 18 16 17 20 40 52 58 64 69 74 81 86 86 85 86 90 87 82 78 75 77 71 75 75 76 76
62 79 42 40 55 68 65 86 94 86 94 80 38 45 30 19 17 16 16 18 21 27 45 53 55 60 68 74 79 81 85 77 84 89 87 83 75 73 73 68 66 69 72 69
61 61 44 45 53 44 77 86 57 86 73 99 72 50 23 19 17 18 18 18 21 32 46 52 53 56 65 73 81 81 83 80 77 88 85 84 80 77 73 72 66 64 67 65
41 57 40 39 43 48 68 71 79 97 92 96 64 55 44 30 25 21 24 27 27 27 31 45 51 55 59 68 77 81 79 80 81 77 83 82 80 77 77 75 71 70 67 66
36 50 52 42 61 59 64 94 91 79 77 98 98 84 62 49 32 34 30 28 27 28 31 35 47 51 55 65 71 74 76 76 81 76 79 79 83 77 80 78 74 73 72 69
45 60 63 46 34 46 68 78 81 98 82 81 98 91 59 62 41 29 28 22 26 24 32 35 47 50 56 63 69 69 68 70 80 78 76 76 76 81 80 80 78 74 75 70
44 69 82 58 46 38 51 66 68 71 86 98 98 84 68 60 48 37 30 25 26 23 24 24 47 49 53 56 68 68 67 67 71 78 79 80 74 76 83 78 76 76 72 72
52 61 68 86 92 95 85 68 65 89 98 79 96 80 61 62 56 48 35 30 25 26 30 30 31 48 52 53 60 66 67 65 66 76 81 83 77 74 76 81 77 77 76 73
50 69 61 50 44 82 86 93 80 87 77 96 65 70 64 66 61 46 32 31 36 35 34 34 34 38 41 56 62 59 65 66 61 62 74 83 80 78 77 75 79 80 79 77
44 61 58 58 40 38 69 61 67 74 84 77 73 74 67 45 41 37 42 41 41 40 39 41 43 43 44 46 49 61 64 66 64 60 60 69 79 79 80 79 79 79 80 83
59 62 64 71 48 46 69 52 61 61 58 55 82 65 36 42 51 47 51 44 43 43 43 46 48 61 64 66 63 67 66 66 67 64 60 58 70 75 76 77 78 79 80 79
64 67 63 78 61 81 51 35 33 36 43 40 56 52 50 53 45 43 45 43 44 42 44 48 66 70 72 73 75 70 61 64 72 73 66 62 60 70 74 73 74 78 81 80
55 68 85 87 78 51 34 28 32 34 56 55 58 58 49 44 44 51 46 38 37 41 47 70 74 77 77 78 78 76 82 80 82 83 84 78 70 68 69 74 76 74 76 80
52 65 81 87 84 80 47 31 30 38 74 51 54 61 55 54 80 67 50 51 53 65 75 76 76 75 78 77 76 79 85 83 84 83 83 85 88 83 75 74 72 76 76 74
75 81 86 86 94 73 40 35 35 60 81 60 53 55 55 62 66 55 50 49 49 53 59 64 70 79 79 74 74 80 82 86 81 80 82 84 86 89 94 92 81 83 84 86
74 86 95 90 90 83 47 43 65 76 61 55 58 62 65 61 57 55 56 55 57 60 64 67 74 77 73 73 77 83 87 80 79 81 83 83 86 85 88 95 97 98 98 99
94 68 83 70 72 86 79 73 72 56 61 60 63 59 59 62 60 57 61 61 61 65 69 69 73 74 75 76 78 87 86 81 81 82 86 85 84 85 87 94 96 96 98 99
94 73 74 73 90 89 89 78 54 60 59 55 57 60 61 64 62 62 63 64 66 69 72 71 73 77 80 78 80 84 85 82 82 87 89 86 88 87 87 87 91 95 97 98
95 85 83 93 92 90 90 88 75 59 57 56 56 62 66 65 65 65 68 68 68 70 69 70 76 79 81 79 82 83 83 85 83 87 89 91 90 86 89 93 95 94 98 98
71 97 99 99 98 94 94 78 63 65 65 62 67 69 66 67 68 61 68 68 68 71 70 73 76 78 79 81 84 86 84 84 88 92 92 94 91 91 89 88 92 96 96 96

GFSCGP_sfc_rhum_093.txt.gz
RH
35 37 36 29 43 44 47 50 55 52 37 46 47 47 43 38 40 38 36 29 23 18 19 37 67 78 89 95 96 96 98 96 97 98 98 99 99 99 99 99 98 99 96 93
48 42 30 25 29 35 41 47 47 46 41 41 53 53 41 37 42 36 33 28 23 19 47 53 74 85 95 93 90 94 95 95 90 90 89 91 92 98 97 98 98 97 98 96
58 48 41 30 30 32 36 40 48 47 46 50 56 46 37 28 32 33 32 30 24 19 45 63 72 91 95 93 92 93 91 92 87 96 99 98 98 98 98 97 98 97 97 97
52 56 64 75 72 62 73 43 44 47 69 66 64 60 36 35 40 37 33 32 25 26 42 61 69 87 94 96 96 96 88 89 85 97 98 97 98 94 92 93 94 98 95 96
68 78 78 77 72 70 70 55 55 51 83 94 82 91 45 45 45 39 35 29 26 21 38 58 68 74 86 96 97 92 90 90 88 96 96 98 97 96 97 93 95 98 99 97
58 66 66 62 63 69 64 66 67 78 85 90 64 77 59 45 44 38 30 28 25 23 26 49 58 68 88 96 94 90 91 90 86 96 96 94 90 90 98 95 95 95 96 99
61 64 60 66 76 72 81 85 98 98 96 87 56 73 59 43 35 34 30 26 22 24 27 50 65 77 96 96 92 90 90 91 92 96 95 87 84 85 96 91 92 92 94 97
74 56 60 59 62 78 93 79 92 88 93 86 50 66 54 38 33 34 29 29 25 24 33 53 62 75 93 95 92 91 91 89 90 93 94 83 81 90 91 91 87 87 88 88
62 61 52 55 56 60 81 89 79 100 98 99 77 62 47 59 59 53 44 42 36 25 28 53 61 75 85 93 95 95 93 88 84 83 94 86 84 84 91 90 84 90 88 80
49 58 54 62 63 67 80 80 99 99 96 96 76 72 79 87 82 66 59 41 40 53 58 54 66 74 80 87 91 93 92 90 84 79 86 91 91 85 88 88 87 93 91 85
52 54 59 67 75 84 83 91 95 96 98 98 91 89 82 93 86 82 76 57 47 47 76 72 69 73 78 83 89 92 91 93 90 80 78 89 91 88 88 88 86 89 88 86
47 64 74 59 45 62 82 80 91 99 98 94 92 87 89 88 79 72 74 64 52 51 68 75 73 74 82 86 88 91 88 89 92 87 80 85 91 86 86 88 86 84 85 85
50 67 85 77 71 74 84 85 91 88 97 98 99 86 77 87 82 72 72 72 57 57 72 72 77 81 88 91 92 92 90 90 90 90 84 85 94 92 86 85 88 84 80 82
54 66 78 93 89 73 93 80 81 95 100 94 91 84 82 87 87 78 73 78 63 62 71 73 82 88 89 89 90 92 92 90 90 90 93 86 94 93 90 87 87 87 82 80
61 70 74 68 68 63 76 78 74 84 94 99 87 76 77 78 86 87 87 82 72 68 68 71 79 84 84 86 85 86 91 90 90 92 91 94 94 94 93 91 89 88 86 82
60 66 71 70 59 65 70 47 43 66 75 85 92 93 62 80 84 88 87 87 76 76 76 77 81 84 86 86 87 86 87 89 88 89 91 90 93 94 92 94 91 91 89 86
66 71 76 77 60 55 59 54 51 68 64 77 96 73 65 82 84 83 88 86 89 84 83 81 82 82 84 86 86 88 86 82 86 86 86 89 90 90 90 87 89 92 91 90
72 73 78 88 66 75 42 30 69 67 80 73 68 76 79 80 79 86 89 91 91 86 85 83 82 82 80 79 77 78 77 79 80 83 82 83 85 88 89 90 89 89 90 93
70 77 85 88 77 51 44 46 57 61 62 70 81 80 77 80 83 91 82 83 84 83 83 79 76 76 76 76 73 73 75 74 78 81 82 82 83 87 89 93 95 90 89 90
78 75 83 93 88 80 59 61 56 64 91 73 80 84 80 68 93 91 83 83 81 76 74 76 74 76 78 77 77 76 79 78 81 79 78 76 79 82 88 92 94 95 96 95
92 93 92 89 84 76 54 77 66 78 84 74 75 85 91 91 88 78 69 73 71 72 73 70 72 77 79 78 78 82 83 84 77 75 76 76 76 77 82 86 88 92 95 97
84 97 98 93 93 90 81 76 86 84 78 76 76 78 83 78 73 71 68 70 72 74 72 69 72 75 76 76 79 83 88 79 75 76 82 84 85 84 82 88 90 90 93 96
96 87 96 81 80 86 83 87 82 78 81 78 76 72 69 72 72 70 73 75 73 71 70 68 71 74 75 78 81 88 85 79 79 80 86 83 84 87 87 92 94 95 92 95
96 96 100 96 94 93 93 86 81 82 87 79 72 71 69 74 73 74 72 73 74 70 72 69 72 77 80 79 81 86 82 80 82 85 84 84 87 89 90 88 90 93 97 95
98 97 100 100 98 96 96 95 95 95 76 79 82 81 74 71 75 77 77 75 75 74 70 72 77 80 82 80 84 85 82 81 82 86 86 88 86 86 88 93 95 93 96 94
98 99 99 99 100 99 100 97 94 95 93 72 71 72 72 72 76 75 80 76 76 79 77 78 79 80 82 82 86 88 83 83 85 87 88 91 91 90 87 86 90 90 93 94

GFSCGP_sfc_rhum_096.txt.gz
RH
37 44 44 34 43 40 47 54 58 55 39 48 51 51 48 45 43 49 45 42 40 35 27 25 30 64 93 95 96 96 97 98 97 98 98 99 99 99 100 99 97 98 94 96
41 44 37 33 30 34 38 46 51 45 40 45 51 46 40 41 38 34 37 33 39 34 31 28 51 90 90 94 94 96 90 93 92 95 89 92 93 98 98 99 97 97 98 96
54 47 38 28 31 33 38 40 42 43 44 48 55 38 28 28 29 33 36 34 35 35 32 39 74 89 91 96 95 94 88 90 89 87 91 97 98 98 98 99 99 98 98 96
54 46 58 56 49 43 65 46 45 51 61 75 72 65 36 31 29 28 28 38 38 36 31 35 65 86 94 94 92 90 87 90 86 90 94 93 92 97 96 98 98 98 97 97
60 78 77 76 70 64 71 66 66 67 69 95 85 84 54 41 47 41 34 34 39 35 30 53 61 74 91 93 86 86 87 90 88 93 97 98 98 90 88 98 96 98 97 96
60 68 64 62 69 71 68 72 72 82 88 98 68 74 59 45 38 39 35 35 36 33 29 46 57 73 94 89 84 88 89 90 88 93 97 96 97 94 98 97 97 93 99 98
68 71 69 66 76 76 79 78 93 89 93 79 59 68 58 44 37 41 41 36 36 34 30 41 67 78 96 92 88 87 88 90 93 95 97 96 96 96 92 92 94 97 98 99
74 61 72 65 65 77 92 78 91 90 91 88 68 78 66 61 67 64 63 50 42 41 34 33 58 70 91 90 87 87 87 91 91 94 96 96 95 96 88 97 91 93 94 95
66 57 55 61 60 62 88 92 79 98 80 97 81 66 53 74 76 72 68 67 66 61 50 38 50 64 90 89 85 85 88 88 88 90 95 96 95 96 96 96 96 89 91 90
50 60 58 70 63 69 79 80 99 98 97 98 83 81 80 89 91 80 71 69 70 62 55 54 49 70 90 90 82 88 86 85 87 89 91 94 95 94 96 95 97 96 89 86
49 55 64 70 76 85 87 83 95 98 99 99 96 88 88 89 90 84 73 64 72 71 69 75 73 78 86 86 83 87 88 85 84 84 89 96 96 94 95 95 96 96 94 93
52 70 72 64 55 66 77 82 76 99 95 98 98 88 91 91 82 72 72 63 67 76 83 82 82 85 94 92 87 87 91 89 85 83 84 89 96 96 96 96 95 95 95 93
55 78 77 82 73 64 82 80 83 96 94 90 98 81 81 85 78 72 75 69 77 80 85 86 89 91 94 94 93 92 95 96 89 87 84 87 91 96 96 96 95 92 94 94
57 70 70 84 83 78 87 82 75 95 99 95 94 89 66 88 83 80 81 81 78 80 85 88 90 92 94 96 96 96 97 95 97 90 85 91 91 93 96 95 95 92 89 91
59 66 72 69 65 75 77 78 74 80 85 96 84 90 75 73 84 83 80 88 80 81 81 84 89 91 90 92 92 97 97 96 94 97 91 90 89 89 95 95 95 93 90 86
62 68 71 72 58 70 75 62 54 51 54 63 82 80 62 66 85 86 89 89 86 84 84 83 84 85 87 87 87 86 84 87 94 92 94 95 93 92 93 92 95 95 94 92
68 71 76 74 66 64 62 55 79 74 76 84 94 77 63 72 80 87 91 89 91 90 88 86 84 83 81 82 82 82 81 80 84 86 86 87 90 94 94 94 93 94 95 94
73 75 79 89 72 78 41 36 66 69 76 75 68 68 83 94 94 93 91 92 92 90 90 89 85 83 78 76 75 74 72 77 79 82 82 82 84 86 87 91 93 94 94 94
70 77 84 88 81 58 52 60 74 81 73 78 85 84 88 88 85 95 90 90 92 90 89 86 83 81 79 77 73 74 75 75 76 79 79 78 80 83 86 90 94 93 94 96
80 76 81 92 90 84 52 76 71 74 89 82 84 89 92 88 96 98 90 90 88 84 82 83 80 77 77 78 74 78 78 78 81 79 78 77 77 81 85 87 90 91 91 94
91 93 96 95 88 83 71 81 75 85 93 84 86 89 91 96 99 97 87 86 75 73 72 70 72 79 79 76 75 82 82 84 76 79 81 84 83 82 86 87 88 89 90 92
80 94 97 84 96 94 88 80 91 88 81 83 83 86 92 89 90 96 98 80 74 73 70 68 73 76 76 76 79 83 88 78 75 78 82 84 86 84 83 89 90 89 91 93
94 98 97 84 83 92 87 92 81 74 82 87 95 96 90 97 99 92 76 74 71 70 70 68 71 75 76 77 82 88 86 79 78 80 85 85 87 87 86 91 93 93 91 93
88 89 99 99 98 96 95 90 92 94 98 95 97 90 75 82 78 75 75 76 76 71 73 71 73 77 81 79 82 86 83 78 81 84 84 84 87 89 90 88 88 89 91 93
92 89 98 100 97 98 98 98 99 98 93 85 88 92 94 92 90 87 80 78 78 78 76 76 81 83 83 80 84 86 83 81 81 84 84 87 86 84 86 90 93 93 97 94
97 99 98 99 100 100 100 99 98 94 95 92 89 75 71 74 78 74 78 78 79 79 78 79 81 83 85 83 84 87 86 84 85 86 87 91 91 90 86 84 89 87 92 88

GFSCGP_sfc_rhum_099.txt.gz
RH
36 37 40 34 31 30 34 41 42 39 31 36 36 34 30 30 29 31 30 28 27 26 23 24 26 27 49 66 72 73 82 88 89 94 96 97 97 96 95 97 88 94 96 91
36 43 35 30 30 30 32 33 35 34 32 34 34 34 28 30 29 27 26 25 28 26 24 24 24 28 51 64 72 74 76 86 84 86 84 83 89 92 88 92 93 93 88 95
45 42 32 31 32 33 32 33 34 32 28 34 37 33 25 20 21 22 22 25 23 24 25 25 28 36 50 63 72 74 73 83 83 85 83 86 91 95 96 92 87 89 91 97
50 37 34 31 32 29 37 30 27 34 44 48 48 49 27 27 26 24 23 24 28 26 28 25 26 33 56 63 69 71 73 80 82 85 84 85 80 87 88 81 81 74 80 79
49 59 60 51 46 34 44 49 44 48 53 63 56 56 32 24 22 28 32 33 32 26 27 26 26 28 44 63 74 75 76 78 83 85 82 84 86 80 77 77 78 77 79 77
52 58 53 49 64 58 58 58 61 66 65 72 55 45 36 35 36 43 48 55 48 33 30 29 26 32 52 69 75 78 81 82 83 86 87 88 88 77 75 80 75 76 81 83
62 66 59 58 70 66 62 58 73 78 87 56 47 58 45 38 48 62 61 56 55 54 52 41 29 46 67 77 79 80 80 87 85 86 89 88 80 77 82 82 73 79 93 95
63 71 64 60 52 64 66 59 61 55 71 66 58 61 44 64 62 56 51 52 53 58 58 51 39 50 67 77 78 80 81 84 82 87 91 84 76 73 73 74 70 81 87 87
55 54 54 56 56 54 77 72 67 87 74 77 52 47 44 62 61 59 54 54 59 64 64 61 49 44 69 77 79 81 83 81 83 87 90 83 78 77 74 76 79 82 87 88
46 68 56 60 53 65 63 66 87 85 87 84 59 59 51 62 70 63 57 59 69 70 74 63 55 45 68 73 78 79 81 81 83 86 89 80 77 76 75 77 82 83 87 88
43 52 71 63 62 71 78 80 84 78 91 90 76 64 71 71 70 73 62 65 76 81 83 75 73 74 74 73 75 83 84 83 85 85 88 82 79 79 79 79 79 78 84 88
53 60 67 66 58 56 63 69 67 82 94 84 96 60 72 68 64 64 61 75 77 82 88 82 83 82 78 79 83 86 86 85 87 86 89 83 81 79 81 81 81 80 79 85
56 66 87 94 66 55 67 72 73 98 97 90 89 56 59 52 61 57 65 75 79 84 86 88 89 88 85 88 89 89 90 88 85 86 86 86 85 83 79 79 79 79 77 76
62 65 60 67 70 65 75 74 68 78 96 74 77 63 54 55 63 59 75 82 88 86 88 86 87 90 92 92 91 91 91 88 85 84 82 84 83 81 80 79 79 80 78 76
58 65 60 57 56 64 63 62 57 57 60 82 55 56 44 56 64 78 83 76 86 89 88 88 88 89 89 89 90 90 93 90 89 87 87 87 83 84 84 82 80 79 79 75
55 66 60 59 50 57 57 47 40 46 53 55 52 52 41 52 58 87 87 82 87 88 84 85 84 84 87 88 88 86 86 91 90 93 93 91 91 87 91 88 83 82 80 75
62 63 59 52 58 55 47 45 39 58 60 64 71 58 54 67 92 95 92 88 91 91 90 88 84 82 81 84 83 86 83 81 84 85 84 87 89 92 93 92 90 89 85 82
67 65 67 67 62 57 35 34 44 48 51 64 68 71 83 93 94 93 90 91 92 92 94 93 89 83 79 75 76 83 83 80 83 84 82 80 82 85 86 88 92 95 94 94
61 66 75 71 65 49 44 68 64 69 50 75 91 84 85 90 88 98 98 98 98 96 92 94 88 85 78 77 74 74 76 73 81 83 80 78 79 82 84 89 92 92 93 93
71 70 68 77 72 73 59 65 64 69 66 78 89 89 82 80 98 99 100 100 96 86 79 78 81 79 79 79 74 76 75 74 79 76 77 77 78 82 85 87 88 88 89 90
80 84 85 86 75 63 81 73 67 45 78 90 88 94 92 95 99 100 100 100 99 82 71 68 70 76 78 75 77 82 79 81 74 74 78 78 76 80 84 83 82 84 88 89
73 80 88 77 82 82 81 69 84 89 88 93 93 94 95 98 96 95 98 97 92 89 68 66 71 75 74 75 77 82 87 77 73 74 76 81 81 78 79 83 83 82 84 88
94 97 93 84 94 97 91 96 92 84 94 97 98 98 96 96 97 97 90 74 72 70 69 65 68 72 73 74 80 85 86 77 74 76 78 80 81 81 80 86 87 86 84 87
93 78 90 88 100 99 98 98 98 97 94 93 94 93 90 89 92 92 89 76 73 72 72 68 70 73 76 73 77 83 81 75 77 80 80 75 78 77 75 77 82 87 89 89
86 80 96 98 94 98 97 99 97 94 92 88 89 92 91 85 86 84 83 82 74 69 67 67 71 73 76 72 75 76 77 74 75 78 79 78 75 74 76 84 87 86 94 89
82 91 91 98 99 96 100 98 94 91 91 90 76 75 72 70 72 70 73 72 70 71 69 69 69 70 71 70 73 75 75 73 75 77 80 84 82 80 74 73 81 86 86 84

GFSCGP_sfc_rhum_102.txt.gz
RH
21 23 26 25 25 24 21 20 20 18 20 26 24 22 18 16 18 20 18 18 16 16 14 13 14 17 18 26 37 45 55 63 80 82 75 80 91 90 80 86 77 75 77 78
26 23 16 16 23 25 21 22 22 18 18 22 20 19 16 16 16 17 18 17 17 17 16 15 15 16 21 24 38 44 48 56 69 63 60 61 73 80 74 82 75 73 79 85
24 15 12 17 23 27 23 24 23 24 19 18 21 20 16 14 14 14 15 15 15 16 16 16 16 18 19 25 34 41 44 51 62 55 53 61 69 80 82 80 88 81 76 88
27 23 28 28 26 25 26 20 23 23 24 26 30 20 17 16 16 16 17 19 18 17 17 16 16 17 18 23 30 38 42 48 58 57 59 70 66 69 63 67 76 82 78 84
39 36 33 33 28 23 26 26 24 25 28 32 28 34 18 18 17 25 32 34 34 34 31 25 20 18 16 19 31 41 44 47 56 59 61 64 60 55 55 62 74 71 67 71
42 38 32 33 33 25 35 39 42 40 38 49 29 28 18 21 28 32 39 37 38 36 36 33 26 22 19 18 31 47 48 50 57 65 63 64 64 60 58 64 61 62 68 63
46 52 46 42 56 46 40 44 64 74 77 41 30 32 23 32 44 43 41 38 39 40 40 38 33 26 22 23 42 50 50 52 67 74 66 64 66 63 61 59 56 56 67 70
46 64 56 48 40 44 45 39 42 40 42 33 40 40 30 42 42 38 35 36 40 43 49 47 37 32 24 33 47 51 50 54 72 76 71 65 66 58 56 59 51 55 58 64
43 48 45 44 42 36 49 61 43 64 55 56 27 28 31 38 38 38 36 40 46 49 60 61 45 36 29 38 50 57 55 58 76 77 75 76 65 61 58 59 59 61 68 70
33 60 45 49 41 49 43 43 68 61 69 61 33 35 33 45 45 40 40 42 49 55 71 75 54 42 30 42 53 67 68 70 79 80 77 75 64 62 60 62 66 67 72 75
34 41 70 52 48 48 58 60 59 54 68 66 50 49 50 44 39 43 42 42 55 65 76 81 75 55 43 46 55 74 74 75 81 83 80 72 65 63 62 62 66 66 71 77
42 48 64 51 44 37 42 47 49 64 77 62 67 43 44 36 34 40 42 54 56 60 76 80 84 77 62 55 67 77 77 82 86 86 85 73 67 63 64 64 67 68 69 73
48 51 67 73 56 47 49 49 58 86 79 73 68 38 35 30 33 40 51 70 66 65 79 81 82 86 87 78 80 76 83 88 87 88 84 76 73 66 62 62 64 66 68 67
51 48 46 48 56 50 64 52 49 56 72 53 53 42 32 31 35 43 57 70 65 67 80 82 84 87 88 91 88 88 90 88 89 88 82 79 75 66 61 61 65 67 66 68
49 49 43 39 41 41 42 41 39 38 40 55 35 38 34 37 46 50 74 78 76 78 85 86 89 88 87 89 90 90 92 91 89 90 83 81 74 70 68 70 68 67 68 67
59 52 34 39 37 37 40 32 26 28 37 43 41 43 43 72 70 86 87 84 86 83 91 92 92 88 88 89 89 89 90 93 90 91 93 87 83 84 83 76 75 75 72 66
45 44 34 44 34 33 36 32 33 34 34 44 60 56 65 90 91 95 94 93 91 92 91 95 93 88 88 89 89 90 88 86 88 87 85 84 87 89 93 93 88 79 76 73
42 38 39 45 44 37 35 35 33 34 46 62 67 81 79 88 94 96 98 98 95 96 93 98 97 93 89 81 77 85 84 84 83 83 81 82 82 84 86 87 91 94 94 96
44 42 52 51 40 42 52 54 54 53 54 71 86 87 76 83 79 99 100 100 100 100 97 95 98 98 91 86 81 74 77 79 78 82 83 84 85 86 88 90 92 92 91 92
48 47 48 53 50 54 63 48 44 47 62 70 77 93 91 87 98 92 100 100 100 99 89 80 77 82 93 90 78 75 75 75 79 83 82 78 83 83 84 87 90 89 87 88
57 60 62 64 62 56 64 47 46 57 87 88 83 87 86 92 98 100 100 100 100 98 88 78 73 71 74 72 81 83 76 76 68 73 77 75 69 76 79 79 80 83 86 86
57 66 71 62 69 76 91 50 73 95 94 94 91 81 88 91 98 95 100 98 94 94 64 60 64 68 67 68 71 78 82 78 74 69 70 70 72 70 71 76 78 78 81 85
88 83 83 86 96 99 98 97 91 85 94 97 96 95 89 94 96 97 96 89 84 77 70 58 61 64 64 65 70 78 79 70 73 76 71 72 70 67 70 75 76 76 74 80
80 61 83 98 98 96 97 92 91 82 88 83 84 78 70 74 80 87 80 76 69 67 58 56 55 57 62 62 66 73 74 67 68 70 70 75 76 73 70 69 74 79 80 82
69 64 98 100 95 84 80 88 87 85 76 71 70 74 72 67 67 67 68 64 61 59 56 55 56 56 56 56 62 64 66 68 68 71 70 70 70 71 76 85 87 84 92 87
64 85 86 94 100 91 95 89 82 80 83 76 66 57 54 53 56 56 58 57 55 57 57 56 57 57 55 56 60 62 62 63 71 74 74 78 76 72 66 68 79 86 88 85

GFSCGP_sfc_rhum_105.txt.gz
RH
17 20 18 16 22 22 22 21 20 16 14 18 20 19 15 13 13 14 15 14 14 15 12 11 12 11 12 15 22 28 41 55 61 74 58 52 64 82 77 76 66 62 59 66
14 18 12 12 14 22 23 24 22 16 12 19 20 19 14 12 12 13 14 15 15 14 13 12 12 13 16 18 22 29 34 46 57 65 53 46 66 75 63 74 65 65 58 66
14 13 10 12 15 22 26 26 23 16 13 13 17 17 14 11 11 11 11 12 12 13 14 13 14 15 17 18 22 24 33 40 52 57 50 50 60 69 70 72 68 70 64 72
17 10 14 14 17 19 30 22 19 16 19 22 13 17 13 12 12 11 12 13 15 15 14 13 14 14 16 20 22 22 29 34 43 55 50 56 53 65 64 67 69 64 71 71
24 15 16 18 19 17 24 17 17 19 23 22 15 19 15 12 13 17 21 29 29 28 27 26 25 21 15 17 22 26 26 31 39 51 50 51 56 56 54 56 66 73 66 66
22 17 18 16 17 23 19 22 24 23 23 35 22 18 15 14 18 20 28 28 30 30 31 30 27 25 20 18 21 26 29 31 37 50 54 56 61 53 51 54 64 74 73 71
32 36 21 19 26 24 23 33 56 59 51 40 16 19 16 22 28 30 31 29 30 32 36 38 39 32 25 22 23 25 30 32 37 51 53 55 57 53 54 56 55 55 70 65
44 86 38 30 28 31 34 36 41 49 42 28 22 25 18 23 30 29 26 32 32 35 40 45 49 46 31 26 23 22 25 34 35 50 52 54 54 51 50 54 48 48 58 63
43 72 49 34 28 34 51 47 28 56 44 46 30 23 30 28 34 36 34 30 36 37 45 52 57 60 50 31 24 28 34 35 36 55 58 60 60 55 52 54 51 49 52 61
37 59 44 36 33 33 41 30 55 51 52 43 17 20 53 51 36 32 33 33 41 40 48 60 62 66 61 37 28 40 42 38 54 72 74 67 60 56 54 56 55 55 62 64
37 45 52 42 42 38 46 53 53 45 52 58 36 52 40 34 30 32 33 50 48 49 52 65 67 72 68 62 37 47 48 47 73 80 81 70 67 59 56 57 57 65 73 65
26 39 62 61 27 25 28 34 39 54 56 44 54 50 32 27 25 29 48 55 50 50 53 61 71 74 75 82 63 69 69 76 74 83 84 70 70 62 59 58 60 66 74 65
31 47 65 87 45 42 45 36 42 58 55 59 61 58 24 24 26 45 64 57 56 55 56 58 70 79 79 84 87 79 81 87 86 85 84 77 75 69 62 57 64 71 67 69
49 46 52 55 44 41 53 48 42 45 62 51 43 33 42 55 67 68 76 71 66 67 67 64 74 83 82 84 88 91 88 87 88 86 85 87 85 77 64 53 66 74 71 68
46 61 66 50 40 39 43 46 42 48 40 47 38 44 60 62 78 84 79 79 78 76 77 77 75 86 86 86 88 89 94 92 90 90 92 93 89 80 66 61 69 72 73 72
51 41 34 40 32 33 38 29 24 23 27 33 30 65 52 56 61 81 92 92 85 87 86 83 84 88 90 86 88 88 90 92 88 90 95 92 85 76 77 73 75 76 74 70
67 42 40 46 27 26 35 32 28 27 52 57 87 80 56 70 87 93 94 96 94 93 93 99 99 98 95 92 89 91 90 87 89 90 89 89 89 91 93 85 79 76 80 76
37 39 32 42 38 42 39 29 28 46 57 61 75 87 93 92 94 95 98 96 97 98 98 100 100 99 96 93 90 89 87 88 87 90 90 89 88 90 90 90 93 94 93 94
36 35 44 44 36 39 49 40 43 44 84 56 68 89 93 93 82 90 97 100 100 100 99 100 100 100 98 95 90 88 87 88 88 94 95 92 90 89 90 92 94 93 92 93
34 35 40 44 40 67 76 46 37 37 89 71 67 79 82 79 99 94 100 100 100 100 97 97 95 82 98 99 90 92 95 86 95 99 96 88 90 91 92 92 94 94 94 96
46 48 54 54 50 68 91 66 47 76 97 86 73 71 75 89 97 99 100 100 100 100 62 56 60 65 67 78 95 93 89 97 96 88 89 82 82 88 87 90 93 95 98 99
59 76 65 56 57 86 92 54 84 97 95 94 88 79 81 82 90 90 100 100 92 97 79 51 55 61 62 62 70 88 90 82 88 93 82 79 80 77 76 81 83 81 85 89
77 71 79 88 94 97 88 89 91 76 81 84 85 80 79 85 89 93 87 71 61 52 53 51 47 52 56 57 61 74 76 73 76 76 74 81 86 70 68 81 84 82 80 84
70 50 82 90 91 85 80 72 73 70 77 73 72 68 63 67 65 66 61 56 51 49 49 46 47 49 54 56 58 62 65 63 66 70 74 73 81 82 86 81 82 87 88 84
60 62 96 96 86 77 72 74 77 77 68 61 53 55 56 53 53 52 53 50 48 47 47 48 51 52 52 53 59 60 59 64 64 68 70 72 71 69 74 84 89 87 94 92
58 77 85 98 98 86 87 75 70 71 70 59 50 47 44 45 46 45 48 47 46 49 48 48 50 52 53 55 62 64 64 63 69 72 72 80 77 74 69 70 80 85 89 86

GFSCGP_sfc_rhum_108.txt.gz
RH
30 25 21 19 20 23 22 23 23 20 16 18 20 17 15 14 15 15 14 14 15 15 14 14 19 22 22 24 29 43 63 70 71 70 69 68 71 77 80 74 71 77 76 81
33 32 18 13 13 17 19 25 26 24 21 19 22 21 17 16 15 14 14 16 16 17 16 15 19 22 28 26 32 39 55 67 66 67 65 65 68 81 80 86 80 76 77 81
32 24 17 13 13 14 17 23 32 32 23 17 17 21 19 16 14 13 12 13 13 17 18 17 17 21 33 32 38 33 42 63 65 70 67 64 78 84 82 81 80 77 77 78
26 19 19 14 14 12 19 16 24 26 30 26 16 24 18 14 14 12 12 13 14 16 19 18 20 23 29 35 39 32 36 48 60 70 68 69 77 85 80 77 74 75 78 78
28 32 22 16 13 11 16 19 26 27 28 26 21 22 17 13 13 12 16 27 29 29 30 29 29 29 28 32 36 44 35 38 52 66 64 66 71 73 76 73 78 79 80 81
19 18 27 11 13 11 14 24 29 29 31 41 28 23 18 15 13 18 27 28 29 33 38 39 41 40 34 34 36 41 40 35 44 64 68 66 70 70 73 74 81 81 77 82
23 40 58 11 16 16 20 30 69 76 77 59 23 22 20 26 24 26 29 36 38 42 47 46 48 51 54 58 53 38 32 32 41 60 68 65 67 70 70 71 75 80 78 79
39 76 54 23 21 20 26 33 72 55 58 44 25 35 21 24 27 27 32 34 40 44 47 50 54 58 60 61 61 76 29 29 37 54 64 65 65 66 64 66 69 72 75 80
94 77 52 34 18 24 33 46 37 66 51 62 38 42 47 32 31 33 34 38 44 45 49 55 58 63 68 65 70 74 64 28 36 49 62 65 68 68 64 69 69 69 73 71
62 95 77 45 45 30 42 36 70 76 95 94 53 61 76 66 47 37 49 51 50 49 52 58 61 68 68 67 72 82 55 31 42 54 62 64 68 66 68 70 73 72 74 73
86 96 61 44 70 68 86 77 64 56 55 83 58 96 74 65 55 58 55 53 55 56 55 58 64 67 70 69 75 86 59 48 62 69 74 77 72 73 74 71 72 77 79 79
50 75 68 57 34 33 66 72 66 75 50 54 91 100 80 71 59 58 63 61 62 61 61 58 63 70 76 74 80 85 86 84 81 78 83 83 82 78 80 77 76 80 81 79
50 70 84 83 61 46 56 40 38 56 67 60 72 94 64 60 68 68 73 70 68 69 71 68 66 72 80 81 82 85 90 93 90 87 87 87 86 88 83 74 76 79 79 78
58 57 58 93 72 48 60 51 44 41 70 52 62 95 68 76 82 82 80 76 75 74 74 76 80 77 83 84 84 86 89 92 94 92 90 94 93 88 85 79 78 83 80 80
74 96 98 90 55 38 54 47 40 48 37 50 66 85 78 79 86 88 84 79 82 84 84 82 83 86 83 87 87 86 88 89 90 93 96 96 94 90 86 84 83 85 83 80
60 72 57 97 65 58 82 30 24 48 57 66 91 97 70 70 70 84 85 88 93 94 94 91 91 89 91 87 91 88 89 89 88 90 93 92 95 93 92 87 86 89 85 83
68 52 57 48 30 37 51 40 57 56 60 71 94 94 78 88 90 94 94 93 97 98 98 99 99 98 95 93 92 94 90 87 88 90 89 90 92 93 95 93 90 92 91 88
62 47 45 51 44 84 61 46 51 65 64 59 77 93 93 95 96 95 99 97 98 99 99 100 100 99 100 97 93 91 87 88 90 90 90 89 89 92 92 92 94 95 94 95
38 46 57 59 49 59 57 60 68 72 89 70 72 69 94 98 92 96 98 100 100 100 100 100 99 100 96 97 94 89 88 90 91 96 95 93 92 91 92 94 94 93 94 94
31 42 56 57 50 81 84 65 52 50 95 81 68 76 75 84 97 96 99 100 100 100 65 65 67 69 90 97 94 92 98 94 98 99 97 96 95 94 96 98 99 94 94 95
61 65 69 65 68 83 78 62 52 77 98 95 79 78 83 93 98 100 100 100 100 99 87 51 56 61 63 73 87 94 95 99 100 99 100 98 98 97 97 99 100 97 98 100
66 88 78 77 83 89 76 60 80 98 99 95 86 81 83 86 89 91 99 96 72 71 54 47 51 57 59 60 66 82 95 95 94 94 96 98 98 95 98 100 99 98 98 99
84 73 75 84 94 88 79 88 84 75 86 84 78 72 76 80 82 83 73 58 51 48 48 46 48 53 57 59 62 70 74 76 86 93 91 92 90 93 96 95 94 94 90 91
62 52 83 89 91 84 79 72 68 68 72 64 60 58 56 60 57 58 55 52 49 47 48 48 50 54 59 60 63 67 67 67 71 81 89 88 89 88 89 88 91 93 96 94
60 60 89 90 84 76 74 74 70 68 58 52 47 48 50 48 50 49 52 50 48 48 48 51 55 59 61 62 67 67 68 68 72 75 80 85 79 82 84 90 91 90 96 94
58 76 88 93 100 84 87 70 64 65 60 51 48 46 43 44 47 46 51 49 47 51 51 54 58 62 64 66 70 76 72 71 77 84 87 95 91 86 78 81 88 82 85 85

GFSCGP_sfc_rhum_111.txt.gz
RH
34 54 50 36 25 23 30 37 39 29 23 25 26 25 22 19 17 18 18 20 16 20 18 15 17 19 17 19 37 64 68 75 76 78 78 80 87 92 94 92 88 87 89 93
25 44 41 30 24 22 24 27 28 24 21 22 31 47 34 19 18 16 18 20 22 20 20 22 27 26 24 20 26 69 70 77 72 70 70 78 91 95 93 93 91 88 90 92
39 24 32 33 27 22 21 24 25 26 21 27 48 50 36 25 17 20 20 20 20 21 21 20 19 26 30 30 28 65 70 78 74 72 83 90 94 94 96 96 96 92 87 92
35 21 22 30 31 22 22 16 17 20 23 66 55 56 23 23 20 17 17 18 24 38 36 37 45 44 40 37 38 49 72 75 74 76 74 78 84 92 90 95 94 95 92 90
73 31 26 31 35 20 19 17 18 28 72 69 59 44 29 21 18 16 16 39 44 52 54 57 58 58 60 62 66 63 53 74 72 74 73 77 88 92 96 96 93 93 92 92
56 27 21 29 38 46 17 23 55 53 57 81 41 39 38 24 20 37 44 51 54 57 58 59 58 58 62 64 64 66 68 59 78 78 77 75 82 90 89 91 89 91 90 92
53 37 21 34 52 48 26 49 85 82 95 79 38 38 36 34 34 45 55 59 58 60 64 65 67 69 68 70 67 65 70 73 68 79 76 75 73 82 87 85 90 89 95 91
65 59 37 44 54 49 34 50 86 79 92 66 32 44 33 22 51 56 55 56 58 63 64 66 68 71 72 69 68 72 77 81 79 78 75 72 69 78 80 80 86 87 85 91
81 43 53 50 52 38 40 50 50 84 71 84 47 74 55 52 50 61 58 60 63 62 63 68 67 69 69 71 72 76 81 86 78 65 76 74 83 83 76 75 82 85 85 88
81 82 80 54 52 51 38 32 66 94 92 95 54 90 86 91 88 76 76 75 70 66 66 67 68 69 68 71 72 76 79 85 80 69 74 76 87 79 81 76 79 83 85 84
75 85 94 74 66 60 77 72 82 85 90 97 93 99 94 98 93 91 78 75 76 77 77 74 74 73 72 70 73 80 83 89 95 89 81 82 84 81 91 79 75 79 84 87
78 99 98 86 76 60 80 72 68 96 97 91 99 99 96 93 86 76 78 72 71 72 74 74 76 76 77 76 78 82 85 90 92 96 96 94 94 92 91 85 85 84 88 91
79 94 92 83 90 76 90 78 74 76 95 98 98 99 87 73 79 76 81 78 75 74 74 75 77 81 80 81 82 83 86 90 88 93 96 96 96 95 90 88 82 86 87 93
78 81 96 98 99 76 83 68 64 93 96 98 98 99 91 88 90 85 86 83 85 86 82 81 86 85 86 85 85 86 87 87 88 89 92 95 97 96 90 88 87 90 88 93
78 97 94 92 76 92 100 95 94 83 67 97 98 94 95 90 91 89 83 88 92 93 93 94 94 94 89 90 87 86 87 88 86 87 90 93 93 97 96 90 90 90 90 90
72 99 95 99 79 76 94 63 66 74 94 97 92 98 96 92 80 83 85 82 93 94 95 95 94 94 94 93 91 88 88 89 86 89 90 89 90 91 97 93 92 89 89 89
75 78 89 93 68 61 91 75 74 79 78 82 95 98 93 89 93 95 93 90 96 98 98 98 98 97 96 96 95 94 92 87 88 89 88 88 89 92 94 92 95 97 94 93
67 71 62 73 59 93 95 64 67 85 87 77 84 94 88 92 95 92 96 97 97 99 99 98 98 96 98 95 95 93 92 93 91 92 90 88 90 92 92 92 93 95 94 95
58 66 75 81 93 91 70 68 83 81 96 84 85 90 92 95 87 90 90 99 100 99 96 86 84 92 88 91 90 95 92 95 94 98 96 92 92 93 94 96 97 95 94 95
53 64 77 78 81 96 83 74 63 67 96 94 81 90 93 97 95 95 97 99 99 100 84 71 70 69 82 84 86 88 98 94 97 98 98 94 94 97 98 97 99 98 97 100
79 90 89 92 95 84 87 73 60 80 98 98 95 91 87 93 96 98 99 97 100 93 61 57 63 69 66 69 78 92 92 98 98 98 95 92 98 99 98 98 99 100 100 99
88 94 99 89 88 90 85 70 85 99 99 98 96 90 90 90 91 88 95 84 69 69 55 52 61 66 68 67 72 82 95 90 90 91 92 94 95 96 98 97 99 100 100 98
95 86 93 91 93 97 90 97 96 92 97 91 79 74 73 82 80 77 75 67 60 57 58 55 60 66 69 69 73 85 84 79 87 87 90 92 91 94 95 95 96 96 96 95
80 73 92 95 97 93 88 81 75 69 73 64 60 57 56 61 64 67 64 61 59 58 62 62 65 70 74 72 76 79 82 78 77 89 86 86 88 89 89 90 92 92 95 96
79 77 89 97 90 83 80 79 78 70 62 54 53 56 58 58 60 61 61 59 59 60 62 65 72 74 74 71 76 83 77 76 80 85 90 87 80 81 84 89 92 91 96 95
77 89 96 99 100 90 91 76 70 66 63 58 55 54 52 53 57 57 61 59 58 63 65 69 73 74 73 74 81 83 85 82 84 88 90 94 96 86 82 84 89 85 90 89

GFSCGP_sfc_rhum_114.txt.gz
RH
28 33 39 47 37 30 30 30 32 33 29 30 33 30 26 24 21 22 23 24 23 21 18 16 16 15 22 22 41 64 70 74 79 82 92 92 91 93 94 91 92 92 94 94
50 42 27 22 36 41 34 34 30 25 24 26 28 54 49 41 38 28 21 22 22 24 22 21 22 22 26 28 44 65 68 75 75 77 76 84 85 96 92 96 94 90 93 95
75 60 31 25 26 43 43 36 30 26 19 18 29 56 52 41 34 28 24 19 20 19 25 50 63 72 72 75 73 78 73 77 73 72 87 97 98 98 99 98 96 94 91 93
82 68 58 44 34 28 76 35 26 23 26 41 57 88 58 37 28 29 23 24 42 61 66 66 70 73 74 74 68 68 76 84 75 74 81 90 85 90 88 90 92 95 92 94
59 56 61 75 30 26 55 54 31 24 28 55 53 94 66 30 25 27 44 64 67 69 70 71 72 71 72 73 75 70 71 78 89 87 79 82 80 77 95 93 95 92 94 94
65 45 51 50 33 29 40 56 47 70 83 84 61 78 47 45 44 53 68 68 69 70 70 70 67 66 70 72 74 74 76 76 82 90 93 90 88 90 95 93 93 93 93 96
58 54 44 34 35 35 58 74 90 82 92 77 48 70 52 60 71 74 78 76 73 71 71 72 74 74 72 75 76 73 78 82 81 84 87 89 84 92 92 91 88 93 94 95
92 73 40 34 34 43 53 56 72 71 88 74 39 56 43 82 76 73 74 76 74 74 74 74 74 75 76 74 75 77 75 78 82 88 87 86 81 90 85 90 89 91 91 90
92 60 51 46 52 61 66 68 51 80 88 86 56 79 79 74 83 83 81 83 85 83 83 82 78 78 78 76 76 76 76 76 78 84 92 81 85 90 86 87 90 89 90 91
75 84 58 57 67 55 74 49 76 91 88 96 76 96 96 96 97 93 86 86 81 79 79 79 78 78 77 76 75 74 77 80 80 85 92 80 85 84 88 88 92 92 91 90
79 82 65 78 70 76 68 67 84 74 94 99 96 97 100 100 100 100 96 88 83 78 78 79 78 76 75 76 75 78 80 83 84 85 93 94 86 86 89 88 88 90 92 91
76 98 94 95 85 67 84 75 70 86 91 93 98 99 100 100 100 98 97 91 84 78 79 80 81 79 80 82 81 82 84 87 87 86 91 97 98 96 92 90 89 90 90 89
80 99 92 96 94 82 78 72 61 94 99 99 98 99 99 95 98 98 94 94 88 85 88 88 86 89 90 84 85 84 86 88 84 84 88 93 95 98 98 96 92 91 91 91
82 82 92 95 89 94 99 70 71 90 98 94 97 98 97 91 88 89 91 88 85 85 88 88 91 92 92 93 87 86 87 86 85 84 87 91 94 95 98 97 95 94 92 91
82 93 98 93 96 94 100 100 99 99 98 93 98 93 94 90 90 94 82 83 89 90 88 87 89 93 94 95 94 86 87 88 85 86 88 91 89 89 93 97 96 93 92 91
71 93 100 99 96 87 97 94 95 98 97 95 87 96 93 92 82 85 88 87 95 95 90 85 86 88 94 95 95 94 88 89 86 87 89 88 88 88 92 93 96 94 93 92
76 81 94 96 98 84 85 97 93 91 93 92 97 98 93 83 86 92 92 93 96 98 86 92 93 94 95 96 95 96 92 86 89 89 87 87 88 90 91 90 92 94 96 96
70 75 75 96 88 87 100 92 74 86 94 89 93 93 90 91 95 92 89 94 97 96 85 88 92 92 90 86 88 95 90 91 91 93 91 89 90 91 91 91 93 96 95 96
63 77 84 96 90 95 73 81 89 85 96 97 92 96 92 92 80 91 92 96 98 96 84 85 83 87 85 85 85 84 88 89 90 96 96 96 93 96 93 98 96 95 96 96
61 68 87 93 85 96 93 79 68 70 93 98 90 90 87 87 94 95 91 96 87 84 74 74 74 75 84 86 82 89 93 90 94 97 97 97 98 98 99 99 99 99 99 99
86 91 92 92 90 90 88 78 68 82 99 99 90 84 86 91 95 95 94 86 82 73 64 65 69 75 74 74 80 89 93 98 91 89 95 96 96 97 98 98 99 100 100 100
91 98 92 86 84 89 92 72 91 99 99 96 90 86 86 90 86 77 85 79 73 76 66 64 71 73 74 74 78 84 93 92 91 85 88 91 93 93 94 95 97 97 98 97
95 89 91 93 94 96 96 98 96 90 88 78 75 76 82 80 79 79 77 70 69 70 72 67 71 73 74 74 78 85 92 81 86 85 87 88 87 91 92 94 94 93 96 96
82 77 94 93 98 94 94 88 72 69 74 68 65 65 65 70 69 71 69 68 68 70 74 71 72 75 78 78 78 83 86 79 81 90 84 82 85 87 88 85 88 92 94 93
86 81 93 96 94 92 92 89 75 70 62 58 58 62 67 66 67 67 68 68 70 73 73 74 76 76 79 78 81 83 85 85 84 86 89 91 82 83 84 90 93 92 97 96
84 94 98 99 92 91 96 80 69 68 68 63 62 63 60 62 66 66 73 75 73 75 74 76 75 75 78 78 80 84 85 86 86 84 89 94 97 91 88 86 90 87 88 88

GFSCGP_sfc_rhum_117.txt.gz
RH
34 40 45 37 43 39 41 44 44 34 26 28 26 28 27 24 36 30 23 21 23 20 19 20 19 20 26 27 40 74 84 84 89 92 98 98 98 98 98 97 95 96 94 96
69 59 43 35 32 32 35 53 51 39 31 32 27 24 23 23 28 32 38 30 26 21 20 40 67 73 87 85 62 67 77 79 84 82 84 87 88 96 96 98 97 95 96 96
75 49 44 46 42 40 34 34 45 58 42 29 27 27 19 18 29 33 36 34 30 24 62 70 70 79 81 84 86 85 86 76 80 78 85 99 98 99 100 99 95 94 94 96
68 52 65 72 63 47 57 37 35 60 62 57 49 59 52 44 40 34 30 78 81 78 71 72 75 79 81 81 80 80 80 92 90 88 90 94 90 95 91 88 88 93 92 94
61 54 58 56 55 50 62 36 39 56 73 50 33 77 54 49 41 67 81 78 78 78 76 76 75 74 76 79 82 81 81 84 84 88 91 95 95 94 96 96 94 96 96 93
57 45 56 56 46 48 40 58 61 67 67 74 37 60 69 92 92 84 81 79 77 77 76 74 71 70 75 76 78 78 80 82 83 88 90 94 94 95 98 99 98 96 97 97
66 67 59 51 67 51 54 67 90 86 93 82 50 68 62 93 90 91 91 85 83 82 81 83 84 81 77 79 79 76 77 80 82 85 90 87 93 94 92 94 95 97 97 97
96 83 55 39 58 44 50 65 84 70 75 69 55 85 98 94 90 78 79 80 77 80 78 79 78 79 81 78 79 81 80 77 76 80 84 87 86 93 89 79 87 92 93 93
95 77 47 55 61 47 64 68 46 72 68 92 67 98 93 92 94 99 91 90 89 84 80 78 77 78 78 79 81 81 79 78 79 81 82 86 95 91 94 92 92 90 91 91
75 96 59 59 57 64 58 69 83 87 78 86 90 85 96 94 100 100 99 98 94 87 85 83 81 79 78 78 79 81 78 81 81 81 81 85 91 89 92 94 95 94 93 92
83 87 71 64 64 68 79 88 79 64 76 96 96 98 100 100 100 100 100 95 96 95 88 86 84 83 80 77 78 82 82 84 85 84 87 90 92 93 93 94 94 92 95 96
82 99 98 88 79 76 86 71 67 80 79 93 95 99 100 100 100 100 100 100 97 95 84 82 83 84 87 85 83 83 86 87 87 84 87 91 91 92 95 96 94 96 96 95
79 98 93 81 84 67 80 78 88 87 96 98 98 99 100 99 99 99 98 98 100 86 82 81 82 88 90 91 90 85 85 89 83 82 86 90 91 93 95 96 97 96 96 96
85 99 99 96 99 98 99 72 82 80 94 97 97 97 96 94 92 91 95 96 94 83 82 83 84 88 91 88 90 87 86 84 85 82 86 89 91 92 93 94 98 97 96 96
87 99 98 96 100 88 99 91 99 93 96 94 98 94 96 94 94 94 93 96 88 83 84 86 87 88 89 89 90 86 85 84 83 85 87 89 87 87 88 92 93 96 97 96
73 98 100 98 80 78 96 97 99 94 87 93 78 92 94 93 92 90 94 96 90 84 85 85 85 86 89 90 87 85 85 85 82 84 88 86 86 86 89 89 90 89 93 95
81 83 94 97 89 85 84 98 96 92 95 89 84 92 93 91 89 94 95 94 90 83 84 91 93 93 91 91 88 87 85 82 84 86 84 86 87 88 90 88 88 92 94 93
85 83 79 97 90 88 99 91 90 90 94 93 88 92 92 90 95 95 94 94 94 86 89 90 94 94 93 88 86 86 81 84 87 88 87 91 90 89 89 90 94 94 95 96
69 85 98 96 90 96 86 84 91 88 98 96 95 94 93 94 91 91 86 86 95 88 85 87 87 92 88 88 85 85 86 84 89 94 92 92 95 94 91 96 97 97 95 97
68 70 90 94 83 94 94 85 88 75 92 93 86 89 84 93 93 96 85 88 87 82 77 79 78 81 88 89 83 84 89 91 90 94 94 92 93 95 96 97 98 99 100 100
86 88 92 90 93 88 88 94 96 90 95 98 86 82 85 90 97 93 89 89 89 80 73 70 74 81 80 78 82 89 88 96 88 85 89 90 92 94 95 96 97 97 98 98
89 93 92 87 83 90 92 75 85 97 95 98 95 84 88 88 83 83 89 88 82 86 75 69 74 80 79 78 82 89 92 89 90 82 86 90 92 91 93 93 94 95 95 94
93 86 90 92 93 95 95 96 96 85 82 80 86 80 77 83 84 84 84 78 76 76 75 70 73 77 77 78 83 88 90 85 86 90 84 88 87 90 91 92 93 92 91 93
89 77 94 93 98 94 93 80 71 73 78 75 73 70 68 75 74 77 78 78 78 78 78 73 73 79 81 78 78 84 84 78 82 86 89 82 86 87 84 81 87 92 94 94
93 85 95 96 95 93 91 79 76 70 65 65 66 72 73 73 78 80 82 79 77 76 75 74 76 76 80 80 81 84 84 82 78 80 82 89 84 85 86 87 95 93 97 97
84 96 99 98 91 92 95 78 70 73 75 71 69 71 68 69 75 75 81 80 79 78 73 75 72 75 80 80 82 84 85 86 82 79 85 90 93 94 90 92 91 83 86 85

GFSCGP_sfc_rhum_120.txt.gz
RH
38 46 48 40 40 35 41 46 50 40 34 40 43 38 30 25 23 22 32 37 35 28 21 34 65 74 49 47 35 84 91 93 94 93 97 94 93 96 97 97 95 97 96 97
71 62 43 41 40 39 40 43 44 35 34 36 43 48 33 26 23 19 21 20 28 34 44 68 73 75 81 85 87 81 86 94 96 90 89 90 91 93 94 95 97 96 96 97
69 46 48 50 56 56 52 53 48 41 31 31 48 58 40 26 22 17 15 37 67 74 82 74 75 78 84 86 88 84 89 94 94 88 91 99 98 99 99 99 98 97 95 96
69 57 57 69 76 64 74 46 44 46 49 76 60 86 51 32 30 82 81 83 82 82 78 76 75 76 83 84 81 83 83 88 91 93 93 93 92 92 90 91 94 95 95 96
66 62 65 64 54 58 61 53 54 56 58 60 68 86 45 42 88 86 81 85 83 83 86 86 82 78 74 79 81 81 76 83 88 92 94 96 95 95 97 97 95 95 98 96
60 51 58 58 50 53 51 60 61 64 71 84 60 60 69 97 97 92 89 86 84 81 79 79 76 77 77 75 77 78 74 75 83 89 91 95 96 97 98 98 98 97 98 98
73 67 65 56 72 64 64 74 89 90 95 80 47 53 95 98 95 95 94 92 87 80 80 81 82 80 78 78 78 76 78 82 77 82 87 88 92 96 96 95 97 98 98 98
98 84 55 53 68 68 66 70 79 75 73 89 63 86 99 99 96 95 95 92 87 88 84 85 83 80 80 79 79 78 78 80 78 80 81 81 87 94 93 90 96 95 96 95
92 89 54 55 53 52 55 72 46 64 67 76 85 99 80 80 91 100 99 95 97 93 88 89 86 81 80 79 81 82 80 79 79 79 80 83 88 92 93 91 95 92 91 83
87 97 65 59 61 61 54 61 84 85 92 87 93 95 94 92 97 98 98 99 98 98 93 88 85 85 81 79 78 79 79 80 80 79 81 84 87 85 92 94 94 96 94 95
92 99 76 71 78 73 88 86 86 77 78 96 96 97 100 99 100 98 98 99 100 97 98 96 87 82 81 77 78 80 81 84 83 82 85 88 87 88 91 94 86 95 97 96
72 99 98 74 60 72 88 76 74 89 74 94 95 99 100 100 100 98 98 100 99 100 98 99 91 83 82 82 80 82 83 85 86 83 86 88 88 88 91 92 94 97 97 96
88 99 97 78 79 78 85 82 86 83 88 97 97 99 99 97 96 98 98 98 98 98 97 96 87 85 84 82 82 82 84 85 80 81 85 88 89 89 91 92 92 94 97 97
89 98 95 96 97 98 96 84 80 78 95 97 97 97 96 95 94 95 97 96 97 97 94 88 90 88 87 83 82 82 83 83 81 80 84 88 89 88 89 89 90 92 94 97
91 99 100 96 97 94 99 99 87 91 96 93 97 94 97 96 96 96 97 94 83 81 90 90 87 87 87 89 83 81 82 82 81 82 84 87 86 85 86 89 88 89 91 91
78 99 100 96 100 90 95 96 97 93 93 94 90 93 96 95 94 92 95 91 85 83 84 84 84 84 87 89 90 80 83 86 83 84 86 84 83 83 87 88 88 88 88 89
91 96 97 94 87 63 80 98 97 91 88 84 83 94 95 94 91 95 94 94 90 85 85 91 93 93 92 92 90 88 80 82 85 87 85 85 84 86 86 86 89 91 93 91
89 99 91 96 95 88 96 98 95 88 93 88 88 94 94 93 96 95 95 95 93 87 86 91 95 93 94 86 87 84 80 80 86 89 87 86 87 86 86 87 90 93 92 94
76 99 98 92 89 95 90 86 92 91 95 92 92 91 90 94 88 92 88 91 93 89 85 88 90 94 90 88 84 82 87 82 85 91 92 91 90 90 89 92 95 93 93 95
71 94 98 92 83 93 91 79 75 86 92 87 87 89 90 88 92 98 94 92 91 83 77 80 81 83 89 91 84 84 91 91 90 91 93 92 92 93 95 95 95 96 96 95
82 86 95 90 88 88 86 90 84 92 98 88 85 88 86 92 98 96 91 92 92 85 75 72 75 82 83 84 85 89 88 95 95 84 87 90 88 92 93 92 92 93 94 92
89 93 93 92 81 91 90 82 87 96 97 88 94 93 88 90 87 88 93 91 84 86 76 72 77 79 80 80 79 86 92 86 83 90 84 88 89 86 89 90 91 92 92 92
93 86 87 92 91 96 87 95 82 80 88 94 93 83 82 85 87 88 90 84 82 80 80 72 76 77 78 80 82 85 87 76 76 78 88 84 84 88 88 87 91 88 88 90
91 77 90 90 96 91 85 78 72 77 86 89 77 77 76 78 78 84 81 80 80 80 77 75 76 81 82 80 78 85 82 73 71 76 82 82 83 84 87 85 85 89 92 87
93 86 95 95 95 91 82 80 75 74 71 71 73 76 79 79 84 85 85 81 78 76 75 72 75 78 81 77 80 84 82 74 70 72 77 82 82 83 83 85 92 91 96 93
84 90 95 96 89 90 90 81 74 74 76 72 75 76 74 75 80 80 85 80 79 72 68 76 72 73 77 74 79 83 84 73 78 77 80 85 87 94 90 89 87 78 83 81

GFSCGP_sfc_rhum_123.txt.gz
RH
33 29 29 29 33 26 30 33 34 29 24 28 31 30 27 24 24 25 25 24 20 17 18 31 55 58 39 52 55 65 77 76 73 73 79 77 80 83 85 73 74 78 80 87
46 43 31 33 34 37 38 43 41 33 29 30 30 32 26 23 25 28 28 23 20 19 19 44 62 65 69 70 68 59 69 79 79 70 69 71 73 76 83 81 77 77 78 86
45 34 36 40 40 44 40 51 49 46 34 31 37 33 32 29 28 53 64 65 67 69 69 66 65 68 68 72 74 69 67 72 85 76 76 85 88 89 93 89 86 84 79 80
53 46 49 50 52 47 52 44 44 45 48 54 38 49 36 42 48 68 75 76 78 79 73 70 69 68 70 72 71 70 73 73 77 89 84 89 83 84 82 85 88 89 83 78
50 54 58 60 50 51 55 44 46 49 53 55 37 56 39 56 69 94 91 82 81 79 80 78 76 72 70 71 72 70 71 75 80 84 91 91 88 81 73 81 87 92 88 89
53 44 47 48 46 43 42 51 51 57 61 72 50 67 58 91 100 96 95 94 91 84 84 81 75 73 74 72 72 71 73 73 77 82 88 94 92 87 90 86 86 85 93 95
63 57 52 47 56 55 53 62 60 63 83 57 42 54 96 97 98 98 98 98 97 93 90 90 85 82 78 79 77 72 76 79 76 80 84 87 90 92 94 85 89 91 93 97
77 64 46 47 47 40 61 53 48 54 46 44 36 87 97 100 99 98 100 99 98 98 93 92 90 84 81 81 80 80 79 80 78 81 83 84 87 91 90 92 93 92 93 90
85 78 51 44 45 47 51 57 41 54 49 63 72 98 98 82 94 100 99 97 98 98 96 93 87 84 84 84 86 85 83 80 79 80 81 85 85 86 88 89 92 94 90 87
86 97 58 54 54 52 53 46 72 64 83 90 87 94 91 87 95 97 97 98 97 98 95 95 88 81 80 79 82 82 80 79 80 81 82 82 84 83 86 88 91 91 92 91
79 98 68 62 66 64 74 72 65 62 76 88 84 94 99 97 98 98 98 98 98 99 99 98 96 89 75 74 76 79 79 79 80 81 84 84 83 84 86 88 89 93 88 92
70 100 94 78 54 56 68 70 63 79 70 78 92 96 100 100 99 96 97 98 98 99 99 100 99 98 93 79 76 79 81 83 82 81 84 86 86 85 87 88 89 90 94 93
88 91 82 59 63 52 78 79 91 70 77 94 95 95 97 95 96 97 95 95 96 95 95 98 95 97 98 90 78 79 83 81 75 76 82 85 87 87 88 88 87 88 90 92
89 87 80 89 96 92 92 81 70 82 86 91 94 93 93 92 93 94 94 94 94 95 90 86 94 95 96 94 79 77 82 79 76 75 80 85 85 86 87 86 86 88 87 90
88 99 100 96 96 88 96 94 89 89 97 92 95 91 95 94 94 94 95 93 73 73 79 78 81 86 89 90 76 70 78 80 77 77 80 84 82 81 82 86 87 87 88 87
79 93 100 97 98 89 96 96 96 85 84 92 90 92 95 93 92 91 92 90 84 76 78 78 78 78 85 86 82 69 72 78 75 77 81 80 79 80 83 84 84 86 86 87
87 97 89 90 92 81 78 97 95 86 83 85 85 92 93 91 89 92 92 92 86 81 81 86 88 88 88 88 84 77 70 70 75 80 78 80 79 82 85 83 84 84 88 87
81 91 91 86 96 89 97 98 92 90 92 82 82 87 89 89 92 92 89 87 87 82 83 86 92 90 89 82 80 80 76 73 76 82 84 84 83 82 82 82 86 92 89 88
75 88 93 88 82 92 94 86 91 92 92 85 89 88 83 90 80 84 84 85 89 84 79 82 83 90 85 84 75 77 82 80 81 89 90 88 87 87 86 90 92 90 91 93
74 81 97 80 78 86 88 77 74 78 86 80 73 82 83 83 82 89 84 85 88 78 69 70 70 70 85 85 74 77 86 87 88 90 90 87 85 90 92 95 95 93 94 97
70 76 93 85 83 83 80 84 79 91 91 78 74 72 71 82 87 90 83 87 86 76 66 62 62 67 68 69 74 82 81 93 86 84 86 87 89 90 89 88 91 94 96 95
76 83 86 91 88 89 80 92 83 93 90 79 76 70 77 80 79 78 86 82 74 77 64 60 63 66 65 64 64 78 84 71 72 79 82 84 88 87 86 89 88 86 87 88
81 72 76 82 85 90 89 88 76 74 80 82 73 69 69 76 79 79 77 67 65 61 60 58 61 62 64 64 67 75 74 63 64 70 76 77 76 83 86 85 87 81 82 82
84 72 80 85 91 86 79 70 70 77 85 75 66 64 62 68 69 72 67 62 58 58 58 57 59 61 63 62 64 70 69 61 58 64 68 66 69 68 71 70 75 78 85 82
80 75 84 91 91 81 76 68 72 73 67 66 65 65 67 68 70 68 67 60 53 54 55 53 55 58 60 60 64 66 68 60 56 58 63 70 62 61 59 65 77 77 88 86
74 83 86 88 88 78 81 68 66 67 70 66 64 65 61 60 65 63 61 54 49 51 53 52 49 49 54 60 64 67 68 62 62 59 65 74 72 68 62 63 64 74 76 77

GFSCGP_sfc_rhum_129.txt.gz
RH
16 17 13 13 16 14 14 14 12 10 9 13 15 13 10 9 12 26 27 30 31 32 34 34 36 34 31 33 38 38 40 46 36 50 72 58 53 52 55 48 49 50 54 78
20 21 15 17 18 19 18 18 16 13 11 14 14 13 11 10 27 28 30 32 35 39 43 43 45 45 45 43 40 44 42 43 41 45 50 59 48 49 50 50 52 54 57 68
21 16 21 22 20 20 18 19 19 19 15 14 14 13 10 11 25 27 30 33 35 42 51 56 56 58 57 57 56 52 49 46 44 52 49 52 47 48 49 48 47 53 56 63
22 19 23 22 21 21 26 20 22 21 21 19 13 21 19 25 29 36 39 40 47 53 54 61 74 70 69 68 68 67 62 59 56 70 90 66 56 45 44 46 44 45 54 55
27 24 25 26 22 23 26 25 26 25 24 24 14 16 31 34 48 51 52 51 57 61 61 64 80 80 75 76 81 79 72 66 66 81 90 83 72 46 46 52 57 58 59 58
25 21 24 21 23 26 24 29 28 27 26 32 16 21 38 77 88 72 65 58 64 67 72 61 68 82 80 83 86 86 80 75 71 83 89 87 81 84 92 94 84 82 86 80
26 26 22 24 28 27 30 35 47 40 41 33 13 18 75 70 70 72 80 71 67 66 79 76 75 94 88 88 88 90 84 82 80 83 89 92 91 95 93 95 97 92 88 86
30 43 26 24 27 30 31 34 42 39 29 27 20 39 90 59 64 63 83 69 71 75 81 86 80 94 95 92 90 90 90 88 84 80 87 90 88 91 92 94 96 94 92 94
44 34 22 23 24 29 43 42 30 41 37 45 42 89 61 47 62 95 84 74 97 100 96 92 87 96 97 96 93 94 90 88 89 87 84 87 88 88 88 87 89 89 85 84
43 64 32 27 30 28 34 34 57 47 61 59 39 79 77 75 87 86 100 100 92 98 99 96 96 97 96 96 95 91 90 87 85 85 87 88 86 84 85 85 86 86 84 83
46 57 44 35 38 40 48 52 53 40 45 66 65 87 82 96 90 97 100 100 100 100 100 100 100 99 98 98 93 90 88 86 83 80 83 84 83 83 81 83 84 84 85 86
46 84 80 43 29 32 38 46 56 60 54 56 78 98 79 97 84 79 87 91 96 100 100 100 100 100 98 97 96 91 90 87 84 86 85 88 83 80 80 81 83 84 84 83
52 81 61 53 51 32 38 41 48 61 92 87 96 96 73 67 76 75 85 88 95 94 97 100 99 99 99 98 98 96 94 86 84 75 75 80 81 83 84 82 81 79 79 81
62 50 64 66 76 50 60 52 49 54 89 100 97 97 87 76 75 73 82 84 94 98 88 80 89 96 99 100 100 98 96 96 84 86 76 78 77 77 80 79 79 81 78 81
64 78 80 54 57 57 86 79 82 83 87 94 95 87 91 84 82 81 81 86 83 75 75 68 70 71 79 89 89 90 85 81 80 80 85 79 74 77 78 81 83 81 82 83
58 94 98 100 74 61 94 96 99 73 74 76 69 88 73 72 70 79 86 84 79 65 64 69 71 71 72 72 77 73 75 73 74 76 75 72 71 70 76 76 77 79 78 79
63 70 71 79 86 67 77 98 92 69 59 59 69 76 74 74 75 83 80 77 73 69 67 77 82 82 74 72 68 72 66 67 71 74 71 68 70 70 73 71 73 75 78 76
48 52 54 82 72 88 98 63 59 70 69 61 72 75 66 70 73 70 72 78 77 67 66 70 85 82 76 63 62 65 67 68 71 76 75 71 68 70 70 74 76 78 79 80
41 47 61 70 68 84 83 68 67 73 78 62 69 74 68 67 64 72 67 76 82 66 57 57 62 87 63 58 54 58 66 69 74 85 81 78 75 74 73 76 82 75 78 82
41 48 67 59 63 79 65 48 46 47 76 51 59 69 68 65 87 86 72 80 79 55 43 41 39 39 60 59 50 51 66 70 85 91 87 78 79 82 89 89 88 84 81 87
58 50 65 64 63 68 48 54 56 84 91 55 51 58 64 72 83 85 79 83 76 48 38 34 33 34 34 37 44 51 48 80 68 58 80 73 76 91 87 83 88 94 96 90
43 53 68 60 62 81 52 64 79 76 57 50 50 54 65 67 65 64 76 73 53 41 30 28 31 33 33 31 34 40 45 36 40 50 49 60 69 60 86 89 85 86 88 90
57 45 61 65 82 75 64 73 56 51 54 50 51 49 53 59 61 60 54 40 32 27 25 24 26 31 32 30 31 35 36 30 33 39 44 44 46 52 63 69 85 72 77 78
51 44 61 72 79 70 66 63 55 51 52 47 45 46 47 49 46 44 36 31 25 22 22 22 24 28 32 31 33 35 33 30 29 33 38 39 42 41 42 49 53 66 74 73
45 47 67 82 71 63 61 71 68 58 49 47 45 44 45 44 40 34 32 28 24 23 23 22 25 27 29 30 32 34 33 32 31 33 36 44 42 41 39 46 62 60 78 74
41 61 76 87 71 64 64 61 58 56 52 47 46 45 40 38 36 29 28 26 24 26 23 21 22 25 26 29 33 36 37 36 41 40 40 49 50 49 45 45 47 71 71 71

GFSCGP_sfc_rhum_132.txt.gz
RH
17 18 17 13 15 14 13 11 12 9 8 11 13 12 10 9 19 28 29 32 33 34 33 35 41 45 48 52 56 56 58 58 53 52 64 73 80 79 77 58 60 67 75 81
18 22 14 14 14 15 15 16 16 12 11 13 13 13 11 21 28 32 35 37 38 42 41 41 45 51 59 60 62 63 60 61 59 58 58 74 81 79 73 62 58 62 75 83
20 15 17 18 16 17 17 19 17 18 15 14 16 14 9 27 32 34 38 39 43 49 50 50 51 54 58 62 68 66 66 68 68 67 64 80 86 86 79 74 61 63 66 80
18 14 16 19 18 16 21 17 21 22 23 26 14 23 13 26 38 43 47 48 52 53 52 53 54 57 64 65 69 70 72 73 69 70 74 85 93 93 75 71 64 60 64 72
23 18 24 22 18 19 22 22 25 27 27 27 23 20 33 34 56 58 54 55 56 56 57 59 62 60 61 65 75 76 75 76 72 76 82 93 94 92 81 68 68 63 67 68
20 17 20 18 17 21 21 27 28 29 30 42 21 17 54 78 80 69 63 61 63 63 64 60 64 67 69 78 85 83 82 78 77 79 86 94 96 96 90 93 83 69 78 76
25 21 18 18 23 22 28 37 52 49 52 40 13 18 73 68 63 68 77 67 70 68 77 74 76 80 78 83 89 89 87 84 84 86 90 92 94 96 97 96 98 97 96 96
33 39 22 20 24 24 32 31 45 49 36 35 23 47 93 70 67 64 74 68 72 76 79 83 78 82 88 94 89 95 95 91 88 89 91 91 91 94 95 97 97 97 97 94
51 30 19 20 20 23 33 38 29 44 40 50 45 79 53 54 65 93 78 76 83 87 85 87 81 87 97 96 96 97 96 96 89 93 92 93 90 91 94 95 96 96 96 92
42 63 26 22 21 23 30 29 53 48 61 57 39 86 92 75 84 87 94 93 83 90 91 89 89 97 95 98 96 97 97 100 93 91 92 90 91 89 90 90 92 94 94 95
40 54 41 28 37 35 40 42 40 43 53 70 67 87 75 90 89 93 93 92 90 96 95 95 92 97 99 99 97 98 98 100 98 91 92 88 87 90 88 91 90 91 90 90
42 81 86 42 27 26 35 44 48 83 59 52 83 94 78 97 83 75 86 81 81 87 97 96 97 95 98 98 98 98 97 96 100 88 86 86 82 83 89 87 88 85 86 84
47 84 62 52 43 32 36 43 40 58 85 84 93 93 70 67 74 76 85 81 85 79 90 94 94 96 96 97 99 99 99 97 96 84 87 87 84 82 84 83 84 82 82 82
57 56 64 95 76 49 51 45 46 50 80 86 91 94 95 73 74 76 81 79 81 90 90 83 89 91 95 98 99 100 99 99 97 95 90 88 88 85 82 81 80 82 81 84
54 79 81 54 51 57 80 66 71 77 87 92 92 82 81 81 81 81 76 76 67 62 65 68 72 77 83 90 90 90 84 90 94 97 96 96 88 82 78 80 79 78 80 78
57 74 96 100 65 59 87 93 99 62 68 73 72 87 76 70 69 78 76 72 70 64 63 67 70 71 71 71 81 81 84 83 79 80 83 77 78 76 77 76 77 77 77 78
65 67 73 77 84 65 90 91 88 62 56 58 70 77 72 70 73 79 77 74 70 66 64 76 76 80 70 65 66 73 73 74 77 80 75 73 72 74 77 74 72 78 79 78
63 58 59 73 79 92 95 58 54 60 62 59 68 69 63 69 70 69 71 74 74 62 61 69 87 82 71 60 60 65 66 72 74 76 74 72 73 74 74 76 77 78 76 78
42 56 71 69 76 82 77 56 59 63 70 57 66 65 64 64 65 75 68 73 78 60 55 58 72 88 62 58 53 56 66 69 78 78 78 77 75 76 78 81 85 80 81 83
41 44 68 66 70 78 67 46 41 43 72 54 59 67 68 63 85 92 73 74 74 50 39 37 37 37 64 60 48 49 65 67 73 86 76 74 81 80 84 84 84 83 82 84
60 58 72 68 60 78 47 45 45 76 85 52 53 59 62 70 87 84 79 79 74 57 32 31 32 33 33 35 45 49 48 68 61 57 72 70 74 84 81 81 81 84 85 83
52 64 68 58 61 91 48 55 74 71 55 50 52 54 62 77 72 70 77 82 58 34 25 25 30 33 32 31 34 40 46 36 42 52 53 57 70 64 77 82 81 80 82 84
56 47 72 75 83 70 68 74 56 48 52 52 56 59 63 65 65 64 63 36 28 24 23 22 26 30 31 32 33 36 37 31 35 44 51 55 54 58 66 73 83 80 79 81
50 40 70 73 75 68 72 57 50 46 50 47 47 50 52 57 53 47 37 29 23 20 20 21 25 28 32 31 33 37 36 33 33 39 46 47 52 52 55 61 68 83 85 84
48 44 69 80 70 65 63 65 58 52 47 46 45 46 47 45 41 34 29 25 22 21 21 22 26 28 29 31 34 37 37 37 39 40 46 55 53 53 53 67 75 76 90 82
40 61 78 83 70 66 72 68 61 62 54 46 46 45 42 37 33 29 28 26 24 24 21 21 25 27 28 32 38 41 42 42 50 50 51 64 65 64 60 60 64 73 78 75

GFSCGP_sfc_rhum_135.txt.gz
RH
27 35 36 28 25 21 19 18 16 15 11 18 20 21 16 39 42 48 48 50 54 53 47 45 47 48 50 54 58 61 67 67 67 70 73 74 81 83 86 86 72 85 81 83
29 34 23 19 19 22 22 22 23 18 16 19 22 23 41 42 48 49 52 59 59 57 55 52 52 55 54 55 58 61 67 69 69 71 73 78 81 84 84 82 82 89 80 81
31 24 19 20 22 21 22 25 26 28 24 24 25 26 49 46 48 49 53 57 59 63 65 62 58 61 62 59 58 67 72 70 73 74 72 78 83 82 83 81 84 74 74 84
24 18 18 24 24 20 24 25 28 29 34 43 28 44 48 55 61 60 62 68 70 70 69 66 64 68 69 60 62 75 74 72 68 72 78 86 88 81 81 79 77 75 72 83
33 26 24 26 23 18 24 29 32 34 41 46 37 43 61 58 72 71 72 65 69 73 78 77 71 72 64 61 72 72 75 75 73 76 83 90 94 89 82 84 84 86 82 75
27 19 24 26 20 21 25 32 36 38 46 75 40 40 80 92 79 72 67 64 71 72 76 77 68 70 72 74 77 80 84 83 78 78 84 91 94 94 94 88 92 94 92 82
32 29 23 23 28 29 30 48 85 81 86 72 31 54 89 75 75 72 76 76 77 74 80 81 79 84 82 84 90 89 88 88 84 87 87 90 93 95 97 97 99 97 96 94
52 57 28 23 26 30 35 45 76 75 70 66 40 88 97 80 73 65 70 72 75 82 80 83 83 88 90 89 95 96 92 91 90 92 89 90 91 94 96 94 96 98 98 98
65 54 31 22 22 25 41 45 37 62 60 75 79 83 78 67 76 87 79 76 90 92 88 87 88 91 94 96 97 97 96 93 95 96 90 90 92 93 96 92 94 95 95 95
54 77 45 24 24 26 33 38 69 71 76 81 88 91 97 85 87 84 95 95 90 92 94 92 93 95 97 98 97 93 94 99 97 96 93 92 93 93 92 90 94 95 94 92
48 69 63 42 38 38 51 48 53 55 74 93 93 94 82 96 90 96 96 93 96 96 97 96 95 94 98 94 97 93 96 96 99 98 96 98 93 94 91 90 89 91 92 93
55 94 93 58 38 31 38 52 56 89 78 83 95 97 82 95 85 84 84 83 89 96 97 97 97 92 93 95 95 97 98 94 99 100 98 99 91 88 90 88 90 85 86 87
57 88 85 64 54 45 43 52 52 83 98 95 96 96 83 77 85 80 79 86 86 86 91 95 92 94 97 93 94 98 98 98 100 99 100 98 92 84 83 89 86 84 86 86
66 72 79 97 96 79 63 51 55 67 94 92 93 99 93 80 79 79 83 82 86 90 81 79 85 87 89 88 89 91 94 98 99 99 96 99 97 86 82 80 82 86 80 83
73 98 90 73 64 68 86 75 81 80 90 99 90 93 89 81 80 86 79 79 74 71 75 73 75 79 77 82 85 86 84 84 89 92 92 95 86 80 80 80 79 80 81 81
67 91 96 99 79 67 93 93 97 93 75 89 82 91 76 77 82 83 80 76 80 70 75 71 75 77 70 69 72 78 86 85 82 76 81 88 83 84 80 79 79 77 77 78
80 83 88 89 87 74 87 89 90 75 66 68 89 84 81 81 80 86 87 82 78 75 80 83 85 86 76 77 69 73 75 70 81 84 75 76 77 79 86 76 78 80 83 79
76 78 75 95 93 97 85 74 71 68 70 75 83 83 77 79 85 83 83 85 84 72 74 84 92 88 78 70 70 70 69 73 71 77 76 71 77 77 79 78 79 81 80 82
72 76 90 92 94 86 80 65 69 77 78 71 78 78 77 76 80 86 77 83 90 75 66 81 78 89 73 64 61 68 67 74 70 79 82 76 73 76 78 83 86 81 84 86
64 71 93 87 92 96 81 56 50 52 91 65 68 78 77 76 99 96 84 83 85 76 52 51 47 46 67 68 58 61 77 67 81 75 80 83 78 77 80 82 84 83 81 85
74 77 86 93 90 83 55 54 48 86 85 65 66 70 71 83 96 91 87 88 87 80 43 42 42 44 43 44 55 58 64 78 65 69 68 79 83 86 83 82 82 87 86 85
72 84 93 89 88 92 59 60 79 80 70 66 67 67 72 89 86 84 87 87 76 50 36 37 43 45 43 40 42 48 54 47 55 61 66 66 83 69 87 87 85 85 86 87
87 70 92 90 92 84 78 84 72 62 70 77 78 77 77 81 79 79 81 76 45 30 33 35 40 44 45 44 44 47 47 43 47 58 65 65 64 73 77 85 87 84 85 86
63 61 92 88 84 85 79 65 56 59 68 63 63 64 63 69 63 64 57 36 28 27 31 35 38 42 47 46 48 50 49 49 47 56 61 63 67 68 79 81 87 91 94 92
68 71 88 91 81 72 68 68 64 61 58 56 56 57 60 59 55 43 38 30 28 27 30 35 42 44 46 48 52 54 53 58 55 57 63 72 69 71 72 81 93 89 97 87
62 81 92 93 82 83 83 71 64 65 61 55 52 52 47 43 40 33 34 31 28 32 31 35 40 44 48 54 59 60 61 61 70 65 70 83 86 82 78 81 80 72 78 84